[{"header": {"dx": 0.06612293990616946, "dy": 0.0552356325346848, "nx": 98, "ny": 59, "la1": 35.046912555036876, "la2": 31.78801023549047, "lo1": -121.43107172385933, "lo2": -114.95102361305473, "refTime": "2026041812", "parameterCategory": 1, "parameterNumber": 2}, "data": [6.9, 7.16, 6.92, 6.53, 5.89, 5.04, 4.66, 3.6, 2.77, 2.18, 1.58, 0.0, 0.0, -0.45, -0.63, -1.49, -3.07, -4.0, -4.57, -5.73, -5.36, -4.02, -3.53, -3.07, -2.6, -2.17, -1.26, -0.6, -0.6, -0.63, 0.45, 0.0, 0.0, 0.45, 0.45, 1.34, 1.79, 1.79, 1.2, -0.0, 0.6, 1.7, 2.68, 3.2, 6.0, 7.32, 9.3, 9.92, 8.6, 3.07, 0.8, 1.88, 2.86, 2.86, 2.86, 2.53, 3.49, 4.09, 4.93, 4.66, 2.68, 0.0, -0.32, -0.0, 1.2, 1.86, 2.8, 3.74, 5.16, 6.98, 7.45, 6.66, 5.36, 3.58, 3.58, 4.02, 3.97, 5.36, 3.53, 1.26, 0.0, 0.0, 0.0, 0.0, 0.0, 0.0, 0.0, 0.0, 0.6, 1.4, 1.41, 1.47, 0.72, 0.0, 0.72, 0.76, 1.35, 1.35, 6.9, 7.16, 6.92, 6.27, 6.29, 5.67, 5.06, 4.0, 3.4, 2.8, 1.73, 0.54, 0.0, 0.0, 0.89, 0.0, -1.86, -3.2, -4.15, -4.93, -6.45, -5.29, -4.02, -3.04, -2.4, -1.49, -1.26, -1.26, -1.7, -1.79, -1.79, -1.34, -0.89, -0.0, 0.63, 1.7, 2.6, 3.13, 2.24, 1.27, 1.34, 2.54, 4.0, 6.39, 7.18, 8.46, 9.1, 8.22, 2.53, 0.6, 1.88, 2.53, 3.45, 3.14, 2.53, 2.84, 3.84, 4.84, 5.05, 5.86, 4.73, 2.24, 0.89, 0.95, 1.26, 2.23, 2.8, 3.74, 4.73, 6.51, 6.98, 6.07, 4.02, 3.58, 2.68, 3.13, 4.43, 5.36, 3.53, 1.26, 0.0, 0.0, 0.0, 0.0, 0.0, 0.0, 0.0, 0.0, 0.6, 1.4, 1.41, 1.47, 0.72, 0.0, 0.72, 0.76, 1.35, 1.35, 7.16, 7.16, 6.92, 6.92, 6.53, 5.89, 5.26, 4.42, 4.03, 3.42, 2.36, 1.11, 0.57, 0.0, 0.32, 0.89, 0.63, -1.26, -3.07, -4.57, -4.93, -6.36, -5.94, -4.02, -2.68, -1.86, -1.58, -1.9, -2.6, -2.63, -2.63, -2.24, -1.79, -0.63, -0.0, 1.6, 2.6, 3.13, 3.58, 3.07, 3.32, 4.73, 7.64, 8.16, 8.09, 8.09, 6.88, 2.86, 1.24, 2.15, 2.84, 3.45, 3.45, 3.22, 2.53, 2.84, 3.84, 5.05, 5.6, 5.86, 6.28, 4.66, 2.6, 1.58, 1.9, 2.21, 3.45, 3.83, 4.4, 5.34, 6.54, 6.79, 5.31, 3.13, 2.4, 2.6, 4.47, 7.15, 3.98, 0.6, -0.95, 0.0, 0.0, 0.0, -0.63, 0.45, 0.0, 0.45, 1.26, 2.84, 4.65, 2.9, 1.52, 0.72, 0.0, 0.0, 0.7, 0.63, 7.16, 7.16, 6.92, 6.92, 6.94, 6.29, 5.67, 5.29, 4.44, 4.05, 2.77, 1.7, 0.65, 0.57, 0.6, 1.2, 1.7, 1.2, -0.95, -3.82, -4.73, -4.82, -6.36, -5.44, -4.43, -3.13, -2.4, -1.9, -2.4, -2.63, -3.07, -3.07, -2.91, -1.6, 0.0, 1.34, 2.68, 3.51, 4.66, 5.05, 6.06, 7.59, 7.9, 7.02, 6.44, 6.0, 3.97, 3.07, 3.49, 4.09, 4.0, 3.83, 3.45, 3.16, 3.16, 3.48, 4.46, 5.05, 5.6, 6.28, 6.51, 5.16, 3.45, 2.21, 3.16, 3.48, 3.84, 4.12, 4.75, 5.38, 6.7, 7.47, 6.98, 3.13, 1.86, 1.88, 3.45, 7.28, 4.43, 0.0, -1.58, -0.6, -0.6, -1.26, -1.26, -0.63, 0.0, 1.2, 2.53, 5.37, 6.01, 3.79, 2.29, 0.7, 0.0, 0.0, 0.0, 0.63, 6.92, 6.92, 6.92, 6.92, 6.94, 6.29, 6.31, 5.69, 5.06, 4.24, 3.4, 2.32, 0.61, 0.54, 0.71, 1.24, 1.58, 1.86, 0.0, -2.91, -6.17, -5.29, -4.47, -5.73, -5.77, -4.47, -3.13, -2.12, -1.6, -1.79, -2.15, -2.84, -2.79, -1.84, 0.0, 1.4, 2.53, 4.29, 6.06, 6.24, 6.58, 6.01, 4.46, 3.97, 4.92, 5.77, 6.07, 5.86, 5.34, 4.93, 4.0, 4.0, 3.45, 2.84, 3.48, 4.84, 5.05, 4.93, 6.0, 6.79, 6.55, 4.66, 2.86, 2.07, 2.98, 4.46, 4.46, 4.19, 4.43, 5.37, 7.07, 8.14, 7.73, 5.05, 3.07, 1.61, 2.07, 5.05, 3.82, 0.0, -2.15, -1.24, -0.99, -2.4, -2.15, -0.71, 1.24, 2.53, 5.43, 6.32, 5.37, 2.98, 2.73, 1.27, 0.0, 0.0, 0.0, 0.57, 6.92, 6.92, 6.92, 6.92, 7.19, 6.94, 6.29, 5.67, 5.45, 4.66, 3.81, 2.77, 1.16, 0.65, 0.71, 1.2, 1.2, 1.9, 1.2, -1.61, -5.59, -6.55, -6.17, -5.81, -4.92, -4.38, -3.32, -2.23, -1.26, -0.63, 0.0, -1.24, -1.84, -1.41, 0.0, 1.41, 2.11, 4.65, 6.32, 5.21, 3.11, 2.53, 2.91, 4.47, 7.15, 7.6, 7.11, 5.64, 5.16, 4.24, 3.82, 3.74, 3.45, 3.14, 3.83, 4.93, 4.93, 4.4, 5.86, 7.71, 6.98, 4.15, 2.84, 3.07, 3.79, 4.81, 4.46, 4.19, 3.49, 4.84, 6.54, 6.94, 7.03, 7.2, 6.36, 3.58, 2.53, 2.53, 2.63, 0.63, -1.58, -0.65, -1.16, -1.88, -1.84, 0.0, 1.41, 4.03, 5.21, 5.3, 3.38, 3.64, 3.64, 1.16, 0.0, 0.0, 0.59, 0.66, 6.92, 6.92, 6.92, 6.92, 6.92, 6.94, 6.29, 6.31, 5.92, 5.06, 4.44, 3.4, 1.33, 1.2, 1.4, 0.71, 1.24, 1.88, 2.79, 0.61, -2.4, -4.43, -5.16, -4.93, -4.15, -3.58, -3.16, -2.41, -1.6, -1.2, -0.63, 0.0, 0.0, 0.0, 0.0, 0.0, 0.72, 3.91, 5.24, 2.15, 0.57, 0.65, 1.8, 5.59, 6.99, 5.31, 4.87, 5.34, 5.44, 7.08, 5.73, 3.32, 3.45, 3.83, 4.15, 4.24, 4.24, 3.74, 5.16, 6.98, 6.51, 4.4, 2.86, 2.86, 2.15, 3.48, 4.84, 3.83, 2.91, 4.41, 5.77, 5.31, 5.77, 7.12, 7.12, 6.71, 4.02, 2.68, 2.91, 3.97, 0.0, 0.0, 0.0, -0.76, 0.0, 0.71, 2.28, 3.06, 3.69, 3.0, 2.9, 3.33, 1.47, 0.0, 0.0, 0.54, 1.33, 1.27, 6.92, 6.92, 6.92, 6.92, 6.92, 6.94, 6.94, 6.56, 6.31, 5.69, 4.66, 3.37, 2.07, 1.88, 2.84, 1.24, 1.49, 3.16, 3.48, 2.86, 2.24, 1.24, 0.0, -2.4, -3.16, -2.76, -3.0, -3.2, -3.91, -2.84, -2.21, -0.57, 0.0, 0.76, 0.63, 0.67, 0.0, 2.2, 3.22, 2.54, 0.45, 0.57, 1.66, 2.99, 2.21, 1.79, 2.91, 5.16, 6.55, 7.08, 3.07, 3.32, 3.83, 4.8, 4.4, 3.83, 4.0, 4.24, 5.59, 5.16, 6.07, 4.66, 2.6, 1.58, 0.71, 2.21, 4.8, 4.41, 2.68, 3.13, 4.02, 4.92, 6.21, 7.45, 7.45, 6.22, 5.32, 4.4, 4.93, 7.12, 6.67, 2.11, 0.62, 0.0, 0.69, 2.15, 2.11, 2.23, 1.45, 2.2, 2.82, 1.36, -0.59, -1.2, 0.0, 1.2, 1.84, 1.27, 6.5, 6.92, 6.92, 6.92, 6.92, 6.94, 6.94, 6.29, 6.31, 5.92, 5.29, 3.97, 3.2, 2.47, 2.3, 1.4, 2.3, 2.07, 2.53, 2.8, 2.68, 2.8, 2.8, 1.7, -0.65, -1.49, -1.66, -4.19, -5.84, -3.79, -0.88, 0.0, 0.0, 0.96, 0.63, 0.63, 0.0, 0.7, 1.24, 0.45, 0.0, 0.0, 0.8, 0.0, 0.0, 0.63, 1.79, 3.58, 4.87, 4.24, 5.37, 3.14, 3.84, 4.46, 4.46, 4.46, 5.05, 5.75, 5.86, 6.07, 6.21, 4.41, 1.79, 0.6, 0.71, 1.9, 5.16, 4.85, 2.24, 2.12, 3.07, 4.88, 7.42, 7.76, 7.01, 4.87, 3.58, 4.47, 6.71, 8.05, 8.49, 3.16, 1.3, 1.32, 1.36, 2.12, 2.0, 1.47, 0.59, 0.59, 0.0, -1.13, -2.23, -1.33, 0.53, 2.53, 2.23, 2.07, 6.5, 6.92, 6.92, 6.92, 6.92, 7.19, 6.94, 6.94, 6.56, 6.31, 5.69, 5.04, 4.66, 3.52, 2.4, 2.26, 2.4, 2.31, 2.26, 0.88, 0.76, 0.8, 1.34, 0.89, -0.63, -2.23, -2.6, -3.22, -3.91, -1.84, 0.0, 0.0, 0.0, 0.0, 0.0, 0.0, 0.76, 0.0, -0.63, 0.0, 0.0, 0.0, -0.45, -0.45, -0.45, 0.0, 0.95, 1.7, 2.24, 2.5, 2.53, 3.16, 3.48, 4.46, 4.84, 5.43, 6.0, 6.36, 6.55, 6.66, 6.71, 4.92, 3.82, 0.71, 0.85, 2.21, 4.66, 5.16, 2.68, 1.7, 2.8, 5.64, 7.33, 7.48, 6.55, 5.32, 3.82, 4.8, 6.36, 7.92, 8.47, 7.15, 1.84, 1.27, 1.33, 1.84, 2.15, 1.9, 0.95, 0.0, -1.61, -2.51, -2.0, -1.27, 0.59, 2.23, 2.51, 2.07, 6.5, 6.5, 6.92, 6.92, 6.92, 6.92, 6.94, 6.94, 6.7, 6.31, 6.31, 5.92, 5.7, 5.08, 3.2, 3.09, 3.15, 2.39, 1.16, 0.0, -0.67, -1.49, -1.2, -1.34, -1.79, -2.24, -1.79, -1.79, -1.4, -1.49, -0.7, -0.57, 0.0, 0.0, 0.0, 0.0, 0.0, -0.63, -1.2, -0.63, 0.0, 0.0, 0.0, 0.89, 1.34, 0.45, 0.0, 0.45, 0.63, 0.54, 1.4, 2.21, 3.07, 3.83, 4.4, 5.75, 6.79, 7.12, 7.15, 7.15, 6.26, 4.02, 1.9, 0.65, 0.7, 2.84, 4.84, 5.34, 3.51, 2.68, 3.74, 5.72, 6.85, 6.36, 6.11, 6.11, 4.93, 3.84, 5.46, 7.03, 7.73, 7.94, 5.78, 1.88, 1.9, 2.6, 3.07, 3.13, 2.68, 1.34, -0.57, -1.33, -1.41, -0.66, 0.59, 2.51, 2.51, 1.8, 6.5, 6.5, 6.92, 6.5, 6.68, 6.68, 6.94, 6.94, 6.94, 6.56, 6.31, 6.31, 6.33, 6.08, 5.72, 5.1, 4.75, 3.83, 2.4, 0.0, -1.57, -2.63, -2.24, -2.68, -3.13, -3.58, -3.39, -3.32, -3.13, -3.74, -3.2, -2.24, -2.4, -2.4, -2.24, -2.15, -2.5, -2.17, -1.7, -1.2, -0.45, 0.45, -0.0, -0.0, -1.2, -0.57, -0.63, 0.0, 0.45, 0.63, 0.89, 1.34, 2.24, 3.13, 3.51, 5.31, 7.11, 7.6, 7.56, 6.55, 4.02, 2.6, 0.7, -0.0, 0.65, 2.84, 5.09, 5.69, 5.59, 4.47, 5.16, 5.6, 5.44, 4.66, 4.73, 6.55, 5.34, 4.19, 5.72, 6.98, 6.44, 6.0, 5.64, 3.07, 2.17, 2.63, 3.53, 3.97, 3.58, 3.13, 1.86, 0.0, -0.51, 0.0, 1.27, 2.48, 2.23, 1.13, 6.5, 6.5, 6.5, 6.27, 6.27, 6.68, 6.94, 6.94, 6.94, 6.7, 6.56, 6.31, 6.97, 6.71, 6.69, 6.32, 5.65, 5.06, 4.45, 3.84, 1.6, 0.0, -0.89, -2.68, -4.02, -5.36, -6.23, -6.61, -7.13, -7.58, -4.87, -3.58, -3.97, -4.24, -3.53, -4.02, -3.97, -3.07, -2.68, -2.24, -1.6, -1.26, -0.71, -0.57, -0.8, -0.8, -0.63, 0.0, 0.0, 0.85, 0.53, 0.53, 1.16, 2.73, 3.49, 4.43, 4.4, 6.71, 6.21, 2.6, 0.95, 0.65, -0.0, -0.0, -0.0, 1.6, 2.86, 4.84, 4.8, 3.51, 3.13, 3.74, 4.24, 4.66, 5.59, 7.21, 6.79, 5.82, 6.08, 5.72, 4.11, 3.84, 5.69, 6.07, 3.51, 3.97, 5.16, 4.52, 3.82, 3.82, 3.82, 1.9, 1.0, 1.2, 2.07, 3.15, 2.51, 0.61, 6.27, 6.5, 6.5, 6.27, 6.27, 6.27, 6.94, 6.94, 6.94, 6.94, 6.96, 6.96, 6.7, 6.97, 6.98, 6.97, 6.92, 5.95, 6.23, 6.23, 6.41, 5.08, 2.21, 0.0, -2.97, -5.36, -6.26, -6.71, -7.15, -6.68, -6.23, -3.58, -5.81, -3.13, -3.13, -3.13, -3.07, -3.13, -2.68, -2.6, -1.86, -1.86, -0.8, -1.4, -0.0, -0.0, 0.45, 0.0, 0.71, 0.0, 0.0, 1.03, 2.09, 1.96, 1.98, 1.3, 1.08, 4.0, 4.34, 0.45, -1.26, -0.8, -0.0, 0.0, 0.0, 0.0, 0.89, 1.79, 4.02, 2.12, 1.7, 1.79, 2.0, 3.32, 5.86, 7.35, 6.4, 5.82, 5.46, 4.46, 2.53, 3.07, 5.72, 6.7, 4.66, 5.05, 5.43, 3.83, 3.07, 3.39, 4.73, 3.07, 2.5, 2.21, 2.84, 3.48, 2.84, 1.2, 6.27, 6.5, 6.5, 6.27, 6.27, 6.53, 6.53, 6.53, 6.94, 6.94, 6.7, 6.96, 6.96, 6.97, 7.33, 7.32, 6.97, 6.64, 6.59, 7.44, 7.9, 7.61, 6.41, 3.73, 0.53, -1.58, -3.54, -4.92, -5.36, -5.81, -5.36, -4.92, -4.02, -3.58, -3.13, -3.13, -3.39, -1.79, -3.58, -2.0, -1.9, -2.53, -1.58, -0.0, -0.0, -0.0, -0.0, 0.89, 1.34, 0.57, 0.7, 1.49, 1.4, 0.63, 0.89, 0.8, 0.76, 2.73, 2.8, -0.0, -1.2, -1.34, 0.45, 0.0, 0.0, 0.0, 0.0, 0.99, 0.8, 0.63, 0.57, -0.0, 0.89, 2.17, 3.45, 5.82, 5.05, 5.09, 4.46, 2.4, 2.12, 2.23, 4.09, 5.6, 4.09, 4.36, 4.46, 3.14, 2.5, 3.32, 4.66, 4.52, 3.84, 2.84, 3.83, 3.07, 2.5, 2.5, 6.27, 6.5, 6.27, 6.27, 6.27, 6.53, 6.53, 6.53, 6.53, 6.94, 6.94, 6.96, 6.96, 7.61, 7.33, 7.61, 7.6, 7.59, 7.55, 7.51, 8.37, 8.18, 7.9, 6.95, 5.21, 3.72, 1.58, 0.0, -0.89, -2.24, -3.58, -4.02, -3.58, -2.68, -2.68, -1.79, -2.17, -1.86, -3.35, -3.16, -1.58, -0.8, -0.0, -0.0, -0.0, -0.0, -0.0, -0.0, 1.26, 1.34, 1.58, 1.6, 1.6, 1.26, 0.8, 0.89, 1.58, 1.9, 1.34, 0.63, -0.0, 1.34, 1.34, 1.34, 0.0, 0.0, 0.0, 0.0, 0.0, -0.0, -0.0, -0.0, 0.6, 1.79, 2.6, 3.07, 3.45, 3.45, 1.86, 1.34, 1.86, 2.6, 3.58, 5.36, 4.87, 2.6, 2.53, 2.5, 2.4, 2.8, 4.93, 3.48, 2.15, 3.07, 5.44, 3.6, 2.53, 2.53, 6.27, 6.27, 6.27, 6.27, 6.53, 6.53, 6.53, 6.53, 6.53, 6.94, 6.94, 6.94, 6.96, 7.33, 7.33, 7.61, 7.32, 7.9, 7.86, 7.81, 8.55, 8.55, 8.43, 8.0, 8.0, 7.69, 6.79, 5.57, 4.34, 2.49, 0.63, -0.45, -1.34, -0.89, -1.2, -2.15, -2.86, -3.93, -2.21, -3.16, -2.84, -0.8, -1.4, -0.0, -0.0, -0.0, -0.0, -0.0, 1.26, 1.58, 1.9, 1.9, 1.9, 1.9, 2.24, 2.68, 3.58, 2.8, 1.4, 1.2, 1.9, 1.9, 1.9, 1.9, 1.9, 1.2, 0.71, 0.0, 0.0, 0.0, 0.45, -0.89, 0.0, 0.89, 1.79, 1.86, 1.86, 1.2, 0.89, 1.26, 2.23, 3.51, 4.02, 5.81, 6.21, 3.07, 1.7, 1.7, 2.4, 5.05, 6.54, 3.14, 1.88, 3.49, 6.0, 4.09, 2.53, 2.53, 6.27, 6.27, 6.27, 6.27, 6.53, 6.53, 6.53, 6.29, 6.29, 6.94, 6.94, 6.94, 7.6, 7.33, 7.33, 7.61, 7.93, 8.22, 7.86, 8.08, 8.55, 8.96, 8.68, 8.22, 8.64, 9.23, 9.11, 8.06, 7.26, 6.3, 4.6, 2.91, 1.79, 1.34, -0.0, -1.9, -3.07, -4.0, -2.6, -1.86, -1.26, -1.26, -0.6, -0.0, -0.0, -0.0, -0.0, -0.0, 1.26, 1.58, 1.9, 1.2, 1.9, 1.58, 2.24, 3.13, 3.39, 2.53, 1.4, 1.9, 2.8, 3.13, 2.68, -0.0, -0.0, -0.0, 0.89, 0.85, 0.76, 0.0, -1.58, -1.9, -0.8, 0.0, 0.0, -0.6, -1.24, -0.4, 0.45, 0.89, 2.24, 3.53, 5.16, 6.85, 4.4, 2.86, 2.86, 2.24, 3.45, 5.09, 6.0, 3.83, 2.53, 3.43, 5.09, 4.46, 3.16, 3.16, 6.27, 6.27, 6.27, 6.53, 6.53, 6.53, 6.29, 6.29, 6.29, 6.29, 6.94, 6.94, 7.22, 7.33, 6.97, 6.79, 7.32, 7.6, 7.55, 8.0, 9.35, 9.63, 8.55, 7.03, 6.4, 7.81, 7.81, 6.25, 5.43, 5.89, 5.4, 4.6, 3.53, 2.68, 1.34, -1.24, -3.72, -4.6, -2.63, -2.12, -1.49, -1.26, -0.6, -0.0, -0.0, -0.0, -0.0, -0.0, 1.26, 1.58, 1.2, 1.4, 1.4, 1.4, 1.4, 2.8, 3.2, 3.2, 3.2, 3.13, 3.13, 3.58, 2.68, -0.0, -0.0, -0.63, 0.45, 2.41, 2.79, 1.58, 0.0, 0.0, 1.86, 2.17, 1.2, -0.6, -2.53, -1.84, 0.0, 0.65, 3.48, 5.09, 6.08, 6.0, 5.37, 4.65, 4.65, 4.74, 5.37, 4.36, 4.46, 5.43, 4.81, 3.64, 4.74, 4.46, 3.48, 3.48, 6.27, 6.27, 6.27, 6.53, 6.53, 6.53, 6.29, 6.29, 6.29, 6.29, 6.7, 6.7, 6.96, 7.33, 7.33, 7.32, 6.98, 6.63, 5.49, 6.01, 8.32, 9.86, 9.02, 6.95, 6.24, 6.68, 5.72, 5.65, 5.29, 4.29, 3.88, 3.6, 3.39, 2.91, 1.7, 0.45, -1.86, -2.68, -2.68, -2.5, -1.88, -1.2, -0.65, -0.54, -0.0, -0.0, -0.0, -0.0, -0.0, -0.0, -0.0, 1.2, 1.2, 1.4, 1.26, 1.26, 3.35, 2.12, 1.7, 3.58, 3.13, 2.68, 2.24, -0.0, -0.0, -0.63, 0.45, 2.12, 3.58, 3.04, 3.95, 6.66, 9.81, 9.83, 6.55, 2.5, 0.0, -2.0, 0.0, 1.35, 3.11, 4.65, 5.06, 4.74, 3.07, 2.21, 1.58, 1.86, 4.11, 2.79, 2.98, 5.37, 5.69, 3.79, 3.26, 4.29, 4.36, 4.36, 5.83, 6.27, 6.53, 6.53, 6.53, 6.29, 6.29, 6.29, 6.29, 6.29, 6.7, 6.96, 6.96, 7.33, 7.6, 7.61, 7.32, 6.7, 6.08, 6.42, 7.9, 9.42, 8.85, 8.24, 7.93, 7.59, 5.69, 4.12, 2.86, 2.53, 1.9, 1.9, 2.23, 1.86, 1.26, 0.89, -0.0, -0.8, -1.24, -1.2, -1.16, -0.61, -0.61, -0.0, -0.0, -0.0, -0.0, -0.0, -0.0, -0.0, -0.0, -0.0, -0.0, -0.0, 1.2, 1.26, 1.86, 1.9, 3.39, 2.24, 1.79, 1.34, 0.89, 1.34, -0.63, -0.63, 0.0, 0.45, 1.58, 3.35, 4.65, 8.05, 10.49, 10.28, 8.14, 6.01, 0.66, -1.41, -1.55, 0.0, 2.29, 3.72, 3.79, 3.14, 1.86, 0.89, -0.0, 0.89, 3.07, 3.07, 4.01, 5.21, 5.59, 3.55, 2.82, 3.6, 3.47, 3.47, 5.86, 5.86, 6.29, 6.29, 6.29, 6.29, 6.29, 6.29, 6.29, 6.56, 6.56, 6.96, 6.96, 7.33, 7.6, 7.33, 7.33, 7.33, 7.61, 8.24, 8.53, 7.9, 7.6, 7.9, 8.19, 7.81, 6.23, 4.65, 3.14, 1.9, 1.24, 1.24, 1.24, 1.24, 1.26, 1.2, 0.89, -0.0, -0.0, -0.0, -0.0, -0.0, -0.0, -0.0, -0.0, -0.0, -0.0, -0.0, 1.34, -0.0, -0.0, -0.0, -0.0, -0.0, -0.0, 1.2, 1.24, 1.49, 1.9, 0.89, -0.89, -0.89, -0.63, -0.63, -0.63, -0.63, -0.63, -0.0, -0.0, -0.0, 1.9, 3.93, 3.45, 2.6, 2.35, 4.07, 4.29, 0.59, -1.35, -1.36, 0.0, 1.41, 2.53, 2.5, 2.17, 1.2, 0.45, 1.26, 3.72, 6.64, 6.98, 6.28, 5.64, 3.38, 1.3, 1.98, 3.0, 3.0, 5.86, 5.86, 5.86, 6.29, 6.29, 6.29, 6.29, 6.29, 6.56, 6.56, 6.56, 6.96, 6.96, 6.96, 7.6, 7.6, 7.61, 7.61, 8.24, 8.56, 8.82, 8.15, 7.17, 6.92, 7.51, 7.8, 6.79, 5.86, 4.93, 3.72, 2.79, 2.5, 1.9, 2.4, 2.6, 2.24, 2.24, 2.12, 1.58, 1.24, 0.65, 0.61, -0.0, 0.53, 0.53, 0.54, -0.0, -0.0, 1.34, -0.0, -0.0, -0.0, -0.0, -0.0, -0.0, -0.0, -0.0, 0.57, -0.0, -0.0, -1.34, -1.34, -0.45, -0.63, -0.6, -0.6, -0.0, 0.45, 0.0, 0.0, 0.0, 0.45, -0.0, -0.0, 0.0, 2.06, 5.21, 4.43, 1.16, -0.59, -0.63, 0.0, 0.66, 1.33, 1.4, 1.24, 1.2, 2.07, 5.21, 7.59, 8.24, 6.92, 4.94, 2.23, 0.61, 1.11, 2.04, 2.04, 5.86, 5.86, 5.86, 5.86, 6.29, 6.29, 6.29, 6.56, 6.56, 6.56, 6.56, 6.96, 6.96, 6.96, 7.33, 7.33, 7.95, 7.95, 7.95, 8.85, 9.08, 8.38, 8.0, 7.35, 7.35, 7.35, 7.15, 7.07, 6.41, 5.75, 4.55, 4.27, 4.11, 3.87, 3.98, 3.58, 3.58, 2.91, 2.91, 2.5, 1.88, 1.16, 1.16, 0.61, 0.53, 0.65, -0.0, 1.26, -0.0, -0.0, -0.0, -0.0, -0.0, -0.0, -0.0, -0.0, -0.0, -0.0, -0.0, -0.0, 0.0, -0.63, -0.63, -0.45, -0.6, -0.8, -0.0, -0.0, 0.0, 0.0, 0.71, -0.89, -0.0, -0.0, 0.0, 1.19, 3.2, 5.59, 4.98, 1.58, 0.0, -1.3, -1.4, 0.0, 0.0, 0.72, 1.45, 3.06, 4.6, 4.46, 6.64, 3.43, 2.53, 1.86, 1.26, 1.84, 2.0, 2.0, 5.64, 5.64, 5.64, 5.64, 5.86, 6.29, 6.56, 6.56, 6.56, 6.31, 6.31, 6.7, 6.96, 6.96, 7.33, 7.61, 7.61, 7.95, 8.24, 8.53, 8.5, 8.73, 8.65, 8.0, 7.72, 7.35, 7.15, 6.79, 6.7, 6.41, 6.28, 6.0, 5.81, 5.51, 5.33, 4.92, 4.47, 4.43, 3.87, 3.2, 3.07, 2.21, 1.61, 1.16, 1.16, 1.2, 1.24, 1.24, 1.24, 0.54, 0.54, -0.0, -0.0, -1.26, -1.26, -0.0, -0.0, 0.45, 0.0, 0.89, 1.34, 0.63, 0.0, -0.89, -0.8, -0.8, -0.6, -0.63, -0.89, 0.6, 1.24, 0.99, 1.34, 1.34, 0.8, 1.2, 2.5, 3.49, 5.75, 2.8, 2.5, 0.0, -1.36, -1.32, -0.73, 0.0, 0.77, 2.35, 2.2, 0.0, 0.0, 1.49, 2.6, 3.07, 3.07, 3.2, 3.14, 3.14, 5.64, 5.64, 5.64, 5.64, 5.64, 5.89, 6.31, 6.31, 6.31, 6.31, 6.7, 6.7, 6.7, 7.24, 7.61, 7.61, 7.61, 7.95, 8.24, 8.24, 8.5, 8.78, 8.73, 8.65, 8.0, 7.9, 7.35, 7.07, 6.7, 6.41, 6.41, 6.51, 6.3, 6.04, 5.7, 5.36, 5.36, 4.88, 4.34, 3.87, 3.2, 2.79, 2.23, 1.84, 1.61, 1.88, 1.9, 1.24, 1.2, 0.65, 0.54, -0.0, -0.0, -1.26, -1.26, -1.26, -1.34, 0.89, 0.89, 0.63, 1.6, 1.6, 0.63, 0.0, -0.6, -0.6, -0.6, -1.2, -0.63, 0.0, 1.24, 1.49, 1.86, 1.79, 1.34, 1.79, 2.6, 3.72, 4.46, 3.49, 3.49, 2.07, 0.0, -2.06, -2.06, 0.0, 0.74, 0.66, -1.2, -1.88, -1.16, 1.7, 3.39, 4.3, 4.77, 4.3, 3.6, 3.6, 5.2, 5.2, 5.89, 5.89, 5.89, 5.89, 6.31, 6.31, 6.31, 6.31, 6.7, 6.7, 6.97, 6.97, 6.97, 7.33, 7.61, 8.24, 7.93, 8.22, 8.22, 8.45, 8.73, 8.65, 8.55, 8.27, 7.35, 7.07, 6.51, 6.41, 6.28, 6.28, 6.1, 5.81, 5.57, 5.34, 4.92, 4.92, 4.47, 3.98, 3.82, 3.2, 2.79, 2.23, 2.23, 1.88, 1.9, 1.9, 1.24, 1.0, 0.54, 0.54, -0.0, -0.8, -1.2, -0.89, -1.79, -1.34, 0.0, 0.45, 0.95, 1.26, 1.26, 0.63, -0.0, -0.63, -0.8, -0.89, -0.8, 0.0, 0.85, 1.6, 1.4, 1.58, 0.89, 0.63, 1.79, 3.07, 4.46, 3.79, 3.43, 3.72, 1.27, -1.23, -2.66, -0.67, 0.0, -1.9, -2.91, -2.51, -1.19, 0.61, 3.72, 5.43, 5.2, 4.8, 4.27, 4.27, 5.23, 5.23, 5.89, 5.89, 5.89, 5.89, 5.89, 6.31, 6.31, 6.31, 6.31, 6.97, 6.97, 6.97, 6.97, 7.33, 7.33, 7.61, 7.93, 8.22, 7.9, 8.19, 8.19, 8.38, 8.65, 8.55, 7.9, 7.9, 7.23, 6.95, 6.67, 6.28, 6.1, 5.81, 5.57, 5.24, 4.89, 4.92, 4.47, 4.02, 3.98, 3.2, 2.79, 2.84, 2.84, 2.84, 2.53, 1.9, 1.24, 1.24, 0.54, 0.71, -0.0, -0.0, -1.26, -0.89, -1.79, -1.79, -0.89, -0.45, 0.63, 1.58, 1.58, 1.2, 0.45, 1.34, -0.89, -0.45, -0.6, 0.0, 0.71, 2.21, 2.41, 1.2, 0.0, -0.45, 0.45, 1.86, 2.53, 3.79, 2.98, 4.1, 4.12, 0.61, -1.23, -2.06, -3.32, -4.0, -3.14, -2.0, -1.36, 0.0, 3.38, 5.06, 5.36, 4.75, 4.73, 4.73, 5.23, 5.23, 5.23, 5.67, 5.67, 5.89, 5.89, 6.31, 6.31, 6.31, 6.58, 6.97, 6.97, 6.97, 6.97, 6.97, 7.61, 7.61, 7.61, 7.9, 7.9, 8.19, 7.86, 8.15, 8.08, 8.08, 8.0, 7.9, 7.61, 6.95, 6.8, 6.28, 6.1, 5.81, 5.57, 5.09, 5.24, 4.88, 4.47, 4.02, 3.98, 3.39, 2.79, 1.9, 1.9, 3.16, 2.84, 2.21, 1.9, 1.24, 0.71, 0.71, 0.57, -0.0, -0.0, -1.2, -1.34, -2.24, -1.34, -0.89, 0.45, 1.6, 1.86, 1.2, 0.45, -0.89, -0.89, -0.63, -0.45, -0.6, 0.0, 2.23, 5.34, 3.79, 0.53, -0.6, 0.0, 0.0, 1.61, 2.84, 2.84, 3.85, 4.75, 4.12, 1.16, -1.84, -5.38, -4.29, -2.04, -0.69, -0.76, 0.0, 0.67, 3.26, 4.02, 4.43, 4.43, 4.43, 5.23, 5.23, 5.23, 5.67, 5.67, 5.67, 5.89, 6.31, 6.31, 6.31, 6.58, 6.97, 6.71, 6.71, 6.71, 6.98, 7.32, 7.32, 7.32, 7.6, 7.9, 8.19, 8.15, 8.15, 8.08, 7.73, 7.44, 7.72, 7.61, 7.34, 6.95, 6.8, 6.28, 6.1, 5.81, 5.57, 5.24, 4.8, 4.44, 4.47, 4.02, 3.39, 3.07, 2.79, 2.23, 1.9, 1.9, 2.53, 1.61, 1.2, 1.24, 0.71, 0.57, -0.0, -0.0, -0.0, -0.89, -1.79, -1.79, -1.34, 0.45, 0.8, 1.7, 0.63, 0.0, -0.95, -1.7, -1.34, 0.45, 0.0, 0.0, 2.07, 5.34, 7.71, 6.64, 2.84, 1.24, 0.0, 0.0, 2.15, 3.49, 4.47, 4.73, 5.08, 4.07, 0.0, -2.23, -3.33, -2.01, -1.36, -1.32, -0.71, 0.0, 2.12, 3.26, 4.02, 4.02, 4.02, 5.23, 5.23, 5.23, 5.67, 5.67, 5.67, 5.67, 5.67, 6.07, 6.33, 6.33, 6.33, 6.71, 6.71, 6.98, 6.98, 6.98, 7.32, 7.6, 7.6, 7.3, 7.59, 8.15, 7.81, 8.08, 7.51, 7.44, 7.35, 7.07, 7.07, 6.95, 6.95, 6.67, 6.51, 6.0, 5.81, 5.51, 5.24, 4.88, 4.47, 4.02, 3.53, 3.32, 3.07, 2.21, 1.86, 1.86, 2.53, 1.61, 1.2, 1.24, 0.71, 0.71, -0.0, -0.0, -0.0, -0.0, -0.95, -1.79, -1.34, -0.89, 0.0, 0.32, 0.0, 0.0, 0.0, -0.57, -1.49, 0.0, 1.9, 2.29, 1.52, 1.84, 5.64, 8.63, 8.55, 5.46, 1.9, 0.54, 1.16, 2.51, 3.15, 4.08, 4.46, 5.06, 3.73, 1.16, -0.57, -1.16, -1.32, -1.93, -1.93, -0.69, 0.0, 1.93, 2.66, 3.26, 3.26, 5.23, 5.23, 5.23, 5.23, 5.67, 5.67, 5.67, 5.92, 6.33, 6.33, 6.33, 6.33, 6.33, 6.98, 6.98, 6.98, 6.98, 6.98, 6.98, 6.98, 6.98, 7.27, 7.27, 7.55, 7.85, 7.51, 7.44, 6.52, 5.82, 6.95, 6.7, 6.95, 6.41, 6.28, 6.1, 5.6, 5.4, 5.09, 4.77, 4.44, 4.02, 3.58, 3.39, 2.68, 2.68, 2.5, 2.5, 2.5, 1.61, 1.49, 1.24, 0.71, 0.71, 0.54, -0.0, -0.0, -0.0, -0.0, -0.6, -1.79, -1.2, -0.95, -0.95, -0.6, 0.0, 0.45, 0.89, 0.0, 0.0, 2.32, 2.4, 0.7, 0.0, 2.21, 5.77, 7.71, 6.4, 2.86, 1.58, 1.9, 2.21, 1.88, 1.84, 3.85, 4.81, 5.06, 4.37, 2.23, 0.0, -0.61, -1.61, -1.8, -1.19, -0.64, 0.62, 1.32, 1.98, 1.98, 5.23, 5.23, 5.23, 5.23, 5.67, 5.92, 5.92, 5.92, 6.33, 6.33, 6.33, 6.33, 6.33, 6.33, 6.98, 6.98, 6.7, 6.98, 6.98, 6.69, 6.97, 6.97, 6.97, 7.55, 7.51, 7.51, 7.21, 6.87, 6.57, 5.46, 6.15, 6.41, 6.41, 6.28, 6.28, 6.0, 5.81, 5.31, 4.8, 4.44, 4.02, 3.58, 3.53, 2.91, 2.91, 2.91, 2.5, 1.9, 1.49, 1.24, 1.24, 0.71, 0.71, -0.0, -0.0, -0.0, -0.0, -0.0, -0.0, -1.7, -2.6, -1.26, -1.9, -1.2, -0.89, 0.45, 1.2, 1.34, 1.49, 1.4, 1.24, 0.63, 0.0, 1.33, 3.45, 4.24, 2.91, 1.86, 1.7, 3.13, 3.13, 2.6, 1.58, 2.53, 4.45, 5.37, 5.32, 4.29, 2.15, 0.63, 0.45, -0.89, -0.54, -0.63, 0.0, 0.67, 0.61, 0.61, 5.02, 5.02, 5.02, 5.26, 5.92, 5.92, 5.92, 5.92, 5.92, 6.33, 6.33, 6.33, 6.33, 6.61, 6.7, 6.7, 6.98, 6.98, 6.69, 6.69, 6.97, 6.97, 6.97, 6.95, 7.23, 7.51, 6.92, 6.87, 6.87, 6.23, 5.93, 5.86, 5.86, 6.28, 6.28, 5.75, 5.6, 5.31, 5.09, 4.77, 4.43, 4.02, 3.58, 2.91, 2.91, 2.91, 2.4, 1.9, 1.24, 1.24, 1.24, 0.71, 0.54, -0.0, -0.0, -0.0, -0.0, -0.0, -0.0, -0.95, -1.58, -1.26, -1.34, 0.89, 0.0, 0.0, -0.0, 0.63, 0.89, 1.2, 0.89, 0.45, 1.58, 2.98, 4.11, 3.07, 2.17, 1.7, 2.4, 3.97, 4.47, 3.58, 2.91, 2.5, 3.14, 5.35, 5.59, 5.29, 3.07, 2.17, 0.6, -0.0, -0.0, 0.0, 0.0, 0.0, 0.0, 0.0, 5.02, 5.02, 5.26, 5.26, 5.69, 5.69, 5.92, 5.92, 5.92, 6.33, 6.33, 6.33, 6.08, 6.34, 6.34, 6.34, 6.98, 6.69, 6.69, 6.69, 6.97, 6.67, 6.67, 6.95, 6.95, 7.25, 6.92, 7.21, 6.87, 6.57, 5.93, 5.59, 5.86, 5.86, 5.75, 5.75, 5.37, 5.08, 4.9, 4.6, 4.34, 4.02, 3.58, 3.09, 2.91, 2.91, 2.4, 1.58, 1.24, 1.24, 1.24, 0.71, -0.0, -0.0, -0.0, -0.0, -0.0, -0.0, -0.0, -0.0, -0.63, 0.45, 0.89, 0.89, 0.89, 0.89, 0.0, -0.45, 0.0, 0.0, 0.0, 0.0, 1.74, 5.37, 5.72, 4.0, 3.58, 4.46, 5.43, 5.59, 4.92, 3.97, 3.32, 2.53, 2.53, 4.29, 5.21, 4.0, 3.2, 2.6, 1.2, -0.0, -0.0, 0.0, 0.0, 0.0, 0.0, 0.0, 5.02, 5.02, 5.26, 5.26, 5.26, 5.69, 5.69, 5.69, 5.69, 5.69, 6.08, 6.08, 6.34, 6.34, 6.34, 6.34, 6.63, 6.35, 6.35, 6.35, 6.35, 6.35, 6.35, 6.65, 6.64, 6.92, 6.92, 6.92, 6.87, 6.57, 5.65, 5.59, 5.86, 5.49, 5.49, 5.49, 5.37, 5.08, 4.8, 4.6, 4.3, 3.98, 3.58, 3.13, 3.07, 3.07, 2.0, 1.58, 0.99, 0.99, 0.71, 0.71, -0.0, -0.0, -0.0, -0.0, -0.0, -0.0, -0.0, -0.0, -0.0, -0.6, 1.34, 0.45, 0.45, 0.89, -0.45, -0.89, -0.63, 0.0, 0.0, 0.0, 1.74, 5.6, 7.71, 5.64, 4.92, 6.28, 5.86, 4.87, 4.02, 3.07, 2.4, 1.9, 1.61, 2.15, 3.07, 3.07, 3.32, 2.68, 1.79, 0.95, -0.0, -0.0, 0.0, 0.0, -0.61, -0.61, 5.02, 5.02, 5.26, 5.26, 5.26, 5.69, 5.69, 5.69, 5.69, 5.69, 5.69, 6.34, 6.34, 6.34, 6.34, 6.34, 6.35, 6.35, 6.35, 6.64, 6.35, 6.35, 6.35, 6.34, 6.34, 6.64, 6.92, 6.92, 6.87, 6.28, 5.98, 5.93, 5.59, 5.86, 5.49, 5.29, 4.94, 4.84, 4.55, 4.4, 4.11, 3.87, 3.58, 2.24, 3.13, 2.68, 2.12, 1.26, 0.8, 0.8, 0.57, -0.0, -0.0, -0.0, -0.0, -0.0, -0.0, -0.0, -0.0, -0.0, -0.0, -0.57, -1.34, -0.45, 0.0, 0.45, -0.45, -0.89, -0.89, -0.63, 0.0, 0.0, 0.8, 3.13, 7.56, 7.89, 5.59, 6.07, 6.07, 4.3, 3.07, 2.6, 2.17, 1.86, 0.99, 1.58, 2.4, 2.91, 2.63, 2.24, 1.79, 1.2, 0.63, 0.0, 0.0, 0.0, 0.0, 0.0, 5.02, 5.02, 5.26, 5.26, 5.26, 5.26, 5.69, 5.69, 5.69, 5.69, 5.95, 5.95, 5.95, 6.34, 6.34, 6.08, 6.35, 6.35, 6.35, 6.35, 6.35, 6.35, 6.06, 6.34, 6.34, 6.34, 6.64, 6.92, 6.32, 6.28, 5.98, 5.65, 5.59, 5.35, 5.01, 5.29, 5.29, 5.21, 4.55, 4.4, 4.11, 3.87, 3.53, 2.24, 3.13, 2.68, 1.7, 1.26, 0.8, 0.8, 0.57, -0.0, -0.0, -0.0, -0.0, -0.0, -0.0, -0.0, -0.0, -0.0, -0.71, -0.57, -0.0, -0.45, 0.0, 0.45, 0.89, -0.45, -0.45, 0.0, 0.0, 0.0, 0.0, 2.4, 6.22, 7.45, 5.43, 6.06, 6.63, 5.72, 3.45, 2.91, 2.63, 2.17, 1.7, 2.17, 2.6, 2.68, 2.68, 2.68, 2.24, 1.34, 0.89, 0.0, 0.0, 0.0, 0.0, 0.0, 5.02, 5.02, 5.26, 5.26, 5.26, 5.26, 5.69, 5.69, 5.69, 5.95, 5.95, 5.95, 5.95, 5.7, 6.08, 6.08, 6.35, 6.35, 6.08, 6.35, 6.35, 6.35, 6.06, 6.01, 6.01, 6.34, 6.34, 6.32, 6.32, 6.28, 5.69, 5.65, 5.59, 5.35, 5.35, 5.01, 5.29, 4.71, 4.65, 4.0, 3.88, 3.6, 3.53, 3.07, 1.79, 2.68, 1.7, 0.8, 0.6, 0.8, -0.0, -0.0, -0.0, -0.0, -0.0, -0.0, -0.0, -0.0, -0.0, -0.71, -0.54, -0.71, -0.8, 0.45, 0.45, 0.45, 0.45, -0.89, -0.89, 0.45, 0.0, 0.0, 0.0, 0.76, 3.47, 4.47, 4.41, 5.05, 7.07, 6.32, 4.0, 3.32, 3.51, 3.13, 3.13, 2.68, 3.13, 3.13, 3.13, 3.13, 2.24, 1.79, 1.34, 0.45, 0.0, 0.45, 0.0, 0.0, 5.02, 5.02, 5.26, 5.26, 5.26, 5.26, 5.26, 5.69, 5.69, 5.95, 5.95, 5.7, 5.7, 5.7, 5.7, 5.7, 6.35, 6.35, 6.08, 6.35, 6.0, 5.72, 5.72, 6.01, 5.72, 5.72, 6.04, 6.04, 6.32, 6.01, 5.69, 5.65, 5.65, 5.35, 5.35, 5.01, 5.01, 4.71, 4.65, 4.37, 4.27, 3.6, 3.39, 3.07, 2.6, 1.34, 1.7, 0.6, 0.6, 0.6, -0.0, -0.0, -0.0, -0.57, -0.6, -0.6, -0.6, -0.57, -0.71, -0.54, -0.54, -1.24, -0.0, -0.0, -0.0, 0.89, 0.0, -1.79, -1.34, -0.89, 0.0, 0.57, 0.0, 0.0, 0.8, 1.79, 2.17, 2.68, 3.82, 4.4, 3.39, 3.58, 4.02, 4.87, 4.87, 3.97, 3.97, 4.02, 4.02, 3.58, 2.68, 1.79, 1.2, 1.2, 0.63, 0.0, 0.0, 0.0, 5.02, 5.02, 5.26, 5.26, 5.26, 5.26, 5.26, 5.69, 5.7, 5.7, 5.7, 5.7, 5.7, 5.7, 5.7, 5.7, 5.98, 5.98, 5.72, 6.0, 6.0, 5.72, 5.72, 6.01, 5.72, 5.72, 5.72, 5.72, 6.01, 5.71, 6.01, 5.69, 5.37, 5.06, 5.35, 5.35, 5.01, 4.74, 4.71, 4.07, 4.0, 3.35, 3.39, 2.91, 2.6, 1.79, 1.2, 0.95, 0.95, -0.0, -0.0, -0.0, -0.0, -0.0, -0.6, -0.6, -0.6, -0.57, -0.71, -0.54, -0.65, -1.2, -1.24, -0.0, -0.0, -0.0, -0.0, -1.58, -1.34, -0.89, 0.0, 0.0, 0.0, 0.0, 0.0, 0.45, 1.2, 2.17, 2.68, 3.13, 3.13, 3.97, 5.64, 6.58, 6.22, 5.36, 4.02, 4.02, 4.47, 4.02, 3.53, 2.17, 1.26, 1.26, 0.6, 0.8, 0.8, 0.8, 4.57, 4.57, 5.26, 5.26, 5.26, 5.26, 5.04, 5.04, 5.7, 5.7, 5.7, 5.7, 5.7, 5.7, 5.7, 5.7, 5.98, 5.72, 5.72, 5.72, 5.72, 5.72, 5.72, 5.45, 5.72, 5.72, 5.72, 5.72, 5.72, 5.71, 5.71, 5.69, 5.37, 5.06, 5.06, 5.06, 5.01, 4.74, 4.71, 4.41, 4.0, 3.35, 3.07, 2.91, 2.6, 1.79, 1.2, 0.63, 0.63, -0.0, -0.0, -0.0, -0.0, -0.0, -0.95, -0.95, -0.6, -0.8, -0.71, -0.54, -1.2, -1.2, -1.9, -1.26, -1.26, -0.0, -1.58, -1.58, -1.2, -0.89, 0.0, 0.0, 0.0, 0.0, 0.0, 0.0, 1.79, 3.13, 3.97, 4.4, 6.64, 7.92, 8.4, 8.06, 7.01, 5.36, 4.02, 3.97, 4.41, 4.24, 3.51, 2.4, 1.24, 1.24, 1.24, 1.24, 1.24, 1.24, 4.57, 4.57, 4.8, 5.26, 5.26, 5.04, 5.04, 5.04, 5.29, 5.7, 5.7, 5.7, 5.7, 5.7, 5.7, 5.7, 5.72, 5.72, 5.72, 5.72, 5.72, 5.72, 5.72, 5.45, 5.72, 5.72, 5.72, 5.72, 5.72, 5.71, 5.71, 5.38, 5.08, 5.06, 5.06, 5.06, 4.75, 4.74, 4.43, 4.11, 3.73, 3.72, 3.07, 2.91, 2.17, 1.79, 0.89, 0.89, 0.45, -0.0, -0.0, -0.0, -0.0, -0.0, -0.0, -0.95, -0.6, -0.8, -1.24, -1.2, -1.2, -1.2, -1.9, -1.86, -1.26, -1.26, -1.58, -1.2, -1.2, -0.89, 0.0, 0.71, 0.76, 0.61, 0.6, 0.0, 1.2, 3.13, 5.77, 7.6, 8.6, 9.84, 10.65, 9.18, 7.01, 5.81, 4.92, 3.97, 3.82, 3.32, 4.8, 1.24, 0.54, 0.65, 1.2, 1.2, 1.2, 1.2, 4.8, 4.8, 4.8, 5.26, 5.04, 5.04, 5.04, 5.29, 5.29, 5.7, 5.7, 5.7, 5.7, 5.7, 5.7, 5.98, 5.72, 5.72, 5.72, 5.72, 5.72, 5.72, 5.34, 5.09, 5.36, 5.36, 5.36, 5.36, 5.36, 5.1, 5.38, 5.1, 5.08, 5.06, 5.06, 4.75, 4.75, 4.45, 4.43, 4.11, 3.48, 3.43, 2.79, 2.5, 1.86, 1.2, 0.89, 0.45, 0.45, 0.45, -0.0, -0.0, -0.0, -0.0, -0.0, -0.63, -0.95, -0.8, -1.24, -1.49, -1.2, -1.61, -1.9, -1.9, -1.86, -1.26, -1.26, -0.63, -0.89, -0.89, 0.0, 0.54, 1.2, 0.57, 0.45, -0.0, 1.34, 2.68, 5.31, 5.82, 6.95, 9.66, 10.68, 9.18, 7.33, 5.77, 5.36, 4.73, 3.32, 4.8, 2.21, 0.57, 0.65, 0.65, 0.65, 0.65, 0.65, 0.65, 4.8, 4.8, 4.8, 4.8, 4.6, 5.04, 5.04, 5.29, 5.29, 5.29, 5.7, 5.7, 5.7, 5.7, 5.7, 5.72, 5.72, 5.72, 5.72, 5.72, 5.34, 5.34, 5.09, 5.09, 5.36, 5.36, 5.36, 5.36, 5.36, 5.1, 5.38, 5.1, 5.08, 5.08, 4.75, 4.75, 4.75, 4.45, 4.12, 3.83, 3.48, 3.16, 2.79, 2.5, 1.86, 1.6, 0.63, 0.0, 0.45, 0.45, 0.45, 0.45, 0.45, 0.45, 0.89, -0.89, -0.95, -0.95, -1.58, -1.49, -1.9, -1.9, -1.9, -1.9, -1.86, -1.58, -1.58, -1.26, -2.24, -1.2, 0.0, 0.0, 0.0, 0.63, 0.45, -0.0, 1.34, 3.13, 3.45, 3.07, 4.01, 7.67, 10.15, 8.93, 7.06, 5.32, 4.43, 3.82, 2.91, 0.63, 0.0, 0.0, 0.0, 0.0, 0.0, 0.0, 0.0, 0.0, 4.8, 4.8, 4.6, 4.6, 4.6, 5.04, 5.04, 5.29, 5.29, 5.29, 5.7, 5.7, 5.7, 5.7, 5.7, 5.32, 5.32, 5.32, 5.32, 5.08, 5.08, 5.34, 5.09, 5.09, 5.36, 5.36, 5.36, 5.36, 5.36, 5.1, 5.1, 5.1, 5.08, 4.75, 4.47, 4.47, 4.47, 4.12, 3.84, 3.83, 3.49, 3.16, 2.79, 2.21, 1.58, 1.26, 0.95, 0.0, 0.0, 0.45, -0.45, 0.45, 0.45, -0.45, -0.45, -0.89, -0.89, -1.2, -1.26, -1.24, -1.9, -1.9, -1.9, -2.15, -2.4, -2.4, -2.4, -2.4, -3.13, -1.79, -1.79, -0.6, 0.0, 0.0, 0.0, 0.45, 0.95, 1.26, 1.2, 2.15, 2.86, 5.43, 7.28, 5.69, 4.3, 3.58, 3.53, 2.91, 1.2, 0.89, 0.0, 0.0, 0.0, 0.0, 0.0, 0.0, 0.0, 0.0, 4.6, 4.6, 4.6, 4.6, 4.6, 4.6, 5.04, 5.29, 5.29, 5.29, 5.29, 5.7, 5.7, 5.7, 5.06, 5.32, 5.32, 5.32, 5.32, 5.08, 5.08, 5.34, 5.09, 5.09, 5.09, 5.36, 5.36, 5.36, 5.36, 5.1, 5.1, 5.1, 4.47, 4.75, 4.47, 4.47, 4.47, 3.85, 3.84, 3.49, 3.49, 2.86, 2.23, 2.21, 1.9, 1.26, 0.6, 0.0, 0.0, -0.63, -0.89, -0.89, -0.89, -0.89, -0.89, -0.89, -0.89, -1.34, -1.6, -1.86, -1.9, -2.5, -2.5, -2.8, -2.91, -2.17, -2.17, -2.12, -2.12, -2.12, -1.7, -1.7, -1.34, -0.45, 0.0, 0.0, -0.0, -0.0, 0.57, 1.9, 2.4, 2.86, 2.53, 1.86, 1.79, 1.79, 0.6, 0.57, 1.24, 2.0, 1.7, 0.57, 0.0, 0.0, 0.0, -0.95, -0.95, -0.95, 4.6, 4.6, 4.6, 4.6, 4.6, 4.6, 5.04, 5.29, 5.29, 5.29, 5.29, 5.7, 5.7, 5.7, 5.06, 5.32, 5.32, 5.32, 5.08, 5.08, 5.08, 5.09, 5.09, 5.09, 5.09, 5.36, 5.36, 5.36, 5.36, 5.1, 4.71, 4.73, 4.73, 4.75, 4.75, 4.47, 4.47, 4.1, 4.12, 3.49, 3.49, 2.86, 2.23, 1.88, 1.2, 0.71, 0.0, 0.0, 0.0, -0.95, -0.63, -0.63, -1.34, -1.34, -1.34, -0.89, -0.89, -1.34, -1.2, -1.86, -2.23, -2.5, -2.5, -2.8, -3.07, -2.24, -2.24, -2.12, -1.49, -1.6, -1.2, -0.95, -0.95, -0.89, -0.89, -0.89, -0.45, -0.32, -0.0, 0.95, 1.86, 1.86, 0.4, 0.0, 0.0, -0.0, -0.45, 0.0, 0.61, 1.84, 3.07, 1.9, 0.65, 0.0, 0.0, -0.95, -0.95, -0.95, 4.6, 4.6, 4.6, 4.6, 4.6, 4.6, 5.04, 5.29, 5.29, 5.29, 5.29, 5.29, 5.7, 5.29, 5.06, 5.32, 5.32, 5.32, 5.08, 5.08, 5.08, 5.34, 5.09, 5.09, 5.09, 5.09, 5.09, 5.09, 5.09, 4.71, 4.71, 4.46, 4.73, 4.47, 4.75, 4.75, 4.1, 4.1, 4.12, 3.49, 3.12, 2.86, 2.51, 1.61, 1.2, 0.54, 0.0, 0.0, 0.0, -0.6, -0.6, -0.95, -1.2, -1.79, -1.79, -1.34, -1.34, -1.34, -1.2, -1.7, -2.23, -2.5, -2.68, -2.91, -3.07, -3.07, -2.24, -1.79, -1.34, -1.34, -0.8, -0.63, -0.0, -0.6, -1.34, -1.34, -1.34, -0.89, -0.45, 0.0, 0.63, 0.63, -0.45, -0.89, 0.45, -0.0, -0.42, 0.0, 0.61, 1.35, 2.66, 2.51, 0.61, 0.0, -0.57, -1.26, -1.26, -1.26, 4.6, 4.6, 4.6, 4.6, 4.6, 4.6, 4.6, 5.29, 5.29, 5.29, 5.29, 5.29, 5.29, 5.06, 5.06, 5.32, 5.32, 5.32, 5.08, 5.08, 5.08, 5.34, 5.09, 5.09, 5.09, 5.09, 5.09, 5.09, 4.69, 4.71, 4.71, 4.46, 4.73, 4.47, 4.47, 4.08, 4.1, 4.1, 3.45, 3.22, 2.84, 2.22, 2.23, 1.84, 1.4, 0.65, 0.0, 0.0, -0.57, -0.57, 0.0, -0.6, -0.6, -1.79, -1.79, -1.79, -1.79, -1.79, -1.34, -1.7, -1.86, -2.8, -2.68, -3.32, -2.91, -3.09, -2.24, -2.24, -1.79, -1.34, -1.34, -0.89, 0.0, -0.0, -0.63, -0.89, -1.34, -1.34, -0.89, 0.0, 0.0, -0.45, -1.7, 0.8, 1.2, -0.0, -0.54, -0.0, 0.45, 1.27, 2.06, 2.04, 0.0, -1.0, -1.24, -1.86, -1.86, -1.86, 4.6, 4.6, 4.6, 4.6, 4.6, 4.6, 4.6, 5.29, 5.29, 5.29, 5.29, 5.29, 5.29, 5.06, 5.06, 5.32, 5.32, 5.08, 5.08, 5.08, 5.08, 4.66, 4.69, 4.69, 5.09, 5.09, 5.09, 5.09, 4.69, 4.45, 4.71, 4.71, 4.73, 4.47, 4.47, 4.08, 3.84, 4.1, 3.45, 3.22, 2.84, 2.22, 1.8, 1.84, 1.16, 0.65, 0.0, 0.0, 0.0, 0.0, 0.0, 0.0, -0.95, -1.34, -1.79, -2.24, -2.24, -2.24, -1.79, -1.7, -2.12, -2.8, -3.32, -3.39, -3.39, -3.39, -3.53, -3.58, -2.24, -1.79, -1.34, -1.2, -0.63, -0.45, -0.45, -0.45, -0.89, -1.34, -0.89, 0.45, -0.45, -2.17, -1.26, 0.6, 1.86, 0.6, -0.57, -0.53, -0.0, 0.57, 1.23, 0.59, -1.26, -1.86, -1.86, -1.86, -1.86, -1.86, 4.6, 4.6, 4.6, 4.6, 4.6, 4.6, 4.6, 5.29, 5.29, 5.29, 5.29, 5.29, 5.29, 5.06, 5.06, 5.32, 5.32, 5.08, 5.08, 4.66, 4.66, 4.66, 4.69, 4.69, 5.09, 5.09, 5.09, 5.09, 4.69, 4.69, 4.71, 4.71, 4.46, 4.73, 4.47, 4.08, 3.84, 4.1, 3.45, 3.47, 2.84, 2.22, 1.8, 1.6, 1.16, 0.53, 0.0, 0.0, 0.0, 0.0, 0.0, 0.0, -0.6, -0.63, -1.34, -1.79, -2.24, -2.68, -2.24, -2.24, -2.17, -2.6, -2.91, -3.39, -3.82, -3.82, -3.87, -3.98, -2.68, -2.68, -2.24, -1.7, -1.7, -1.2, -0.89, -0.89, -0.45, -0.63, -0.63, 0.0, -1.2, -3.51, -2.91, -0.0, 1.26, 1.26, -0.0, -0.53, -0.53, 0.45, 0.0, -0.6, -1.34, -1.7, -1.86, -2.4, -2.4, -2.4, 4.6, 4.6, 4.6, 4.6, 4.6, 4.6, 4.6, 4.84, 5.29, 5.29, 5.29, 5.29, 5.06, 5.06, 5.06, 5.32, 5.32, 5.08, 5.08, 4.66, 4.66, 4.66, 4.44, 4.69, 4.69, 4.69, 5.09, 4.69, 4.69, 4.69, 4.45, 4.71, 4.46, 4.46, 4.08, 4.08, 4.08, 3.42, 3.45, 3.04, 2.84, 2.44, 1.58, 1.13, 1.13, 0.61, 0.0, 0.0, 0.0, 0.0, 0.0, 0.0, 0.0, 0.0, -0.63, -1.34, -1.79, -2.68, -2.68, -2.68, -2.68, -2.6, -3.07, -3.53, -3.53, -3.87, -4.3, -4.44, -4.92, -3.13, -2.68, -2.6, -2.12, -1.79, -1.34, -0.89, -0.45, -0.63, -0.63, -0.45, -1.2, -4.87, -3.53, -0.95, 1.2, 1.7, 0.99, -0.0, -0.61, -0.99, -1.27, -1.79, -1.34, -1.34, -1.86, -2.23, -2.23, -2.23, 4.6, 4.6, 4.6, 4.6, 4.6, 4.6, 4.6, 4.84, 5.29, 5.29, 5.29, 5.29, 5.06, 5.06, 5.06, 5.32, 5.32, 5.08, 4.66, 4.66, 4.66, 4.66, 4.44, 4.69, 4.69, 4.69, 4.69, 4.69, 4.69, 4.69, 4.45, 4.71, 4.46, 4.46, 4.32, 4.08, 4.08, 3.42, 3.45, 3.04, 2.61, 2.2, 1.76, 1.27, 1.13, 0.59, 0.0, 0.0, 0.0, 0.0, 0.0, 0.0, 0.0, 0.0, 0.0, -0.89, -1.34, -2.24, -2.68, -3.13, -2.68, -2.68, -2.68, -3.07, -3.07, -3.53, -3.98, -4.44, -4.92, -3.13, -2.68, -2.24, -1.79, -1.79, -1.34, -1.2, -0.89, -0.45, 0.0, 0.0, -2.6, -4.47, -4.47, -2.24, 0.45, 1.79, 1.86, 0.54, -0.0, -1.0, -1.79, -1.86, -0.6, 0.0, -1.26, -1.86, -1.86, -1.86, 4.6, 4.6, 4.6, 4.6, 4.6, 4.6, 4.6, 4.84, 5.29, 5.29, 5.29, 5.29, 5.06, 5.06, 5.06, 5.06, 5.32, 4.66, 4.66, 4.66, 4.66, 4.66, 4.44, 4.44, 4.69, 4.69, 4.69, 4.69, 4.69, 4.69, 4.69, 4.45, 4.71, 4.46, 4.05, 4.08, 4.08, 3.42, 3.45, 2.8, 2.82, 2.4, 1.76, 1.11, 1.27, 0.59, 0.0, 0.0, 0.0, 0.0, 0.0, 0.0, 0.0, 0.0, 0.0, -0.95, -1.34, -1.79, -2.24, -2.68, -3.13, -3.13, -2.68, -2.6, -2.6, -2.6, -3.07, -3.53, -4.47, -3.13, -2.68, -2.17, -2.24, -1.79, -1.79, -1.34, -0.89, -0.45, 0.0, 0.0, -0.89, -3.58, -4.47, -2.68, 0.0, 1.79, 2.17, 1.58, -0.0, -0.54, -1.2, -1.49, -0.54, 0.0, -0.57, -1.24, -1.24, -1.24, 4.6, 4.6, 4.6, 4.6, 4.6, 4.6, 4.6, 4.6, 4.84, 5.29, 5.29, 5.29, 5.06, 5.06, 5.06, 5.06, 4.88, 4.66, 4.66, 4.66, 4.66, 4.66, 4.66, 4.66, 4.66, 4.44, 4.69, 4.69, 4.69, 4.69, 4.69, 4.45, 4.71, 4.46, 4.05, 3.83, 4.08, 3.42, 3.42, 3.45, 2.82, 2.18, 1.73, 1.23, 1.11, 0.57, 0.0, 0.0, 0.0, 0.0, 0.0, 0.0, 0.0, 0.0, 0.0, -0.6, -1.2, -1.79, -1.79, -2.17, -2.68, -2.68, -2.68, -2.68, -2.6, -1.86, -2.12, -2.17, -3.13, -3.58, -3.98, -2.6, -2.24, -2.24, -2.17, -2.17, -1.7, -0.89, -0.89, 0.0, 0.45, -2.68, -4.02, -2.63, 0.0, 1.79, 2.17, 1.58, 0.57, -0.0, -0.6, -1.2, -1.24, -0.71, 0.0, 0.0, 0.0, 0.0, 4.6, 4.6, 4.6, 4.6, 4.6, 4.6, 4.6, 4.6, 4.84, 5.29, 5.29, 5.29, 5.06, 5.06, 5.06, 5.06, 4.63, 4.88, 4.66, 4.66, 4.66, 4.66, 4.66, 4.66, 4.66, 4.66, 4.66, 4.66, 4.69, 4.69, 4.69, 4.69, 4.45, 4.46, 4.05, 3.83, 3.83, 3.64, 3.42, 3.45, 2.8, 2.18, 1.73, 1.57, 1.23, 1.11, 0.57, 0.0, 0.0, 0.0, 0.0, 0.0, 0.0, 0.0, 0.0, -0.8, -0.6, -1.34, -1.79, -1.79, -2.12, -2.17, -3.13, -3.13, -3.13, -2.12, -1.2, -1.6, -2.24, -3.58, -4.02, -2.68, -2.24, -3.58, -2.68, -2.68, -2.24, -0.89, -0.89, -0.45, -0.45, -1.7, -3.58, -3.07, -0.63, 1.34, 1.7, 1.26, 0.6, -0.0, -0.63, -1.34, -1.26, -0.57, 0.0, 0.54, 0.54, 0.54, 4.6, 4.6, 4.6, 4.6, 4.6, 4.6, 4.6, 4.6, 4.6, 5.29, 5.29, 5.29, 5.29, 5.06, 5.06, 4.63, 4.63, 4.63, 4.42, 4.66, 4.66, 4.66, 4.66, 4.66, 4.66, 4.66, 4.66, 4.66, 4.44, 4.69, 4.69, 4.69, 4.45, 4.46, 4.05, 3.83, 3.83, 3.64, 3.42, 3.45, 2.8, 2.18, 1.73, 1.73, 1.57, 1.23, 0.57, 0.0, 0.0, 0.0, 0.0, 0.0, 0.0, 0.0, -0.54, -0.57, -0.8, -0.95, -1.2, -1.34, -1.79, -2.12, -2.6, -3.09, -3.58, -2.68, -1.79, -1.34, -1.79, -3.13, -3.58, -3.58, -3.13, -4.02, -2.68, -2.63, -2.24, -0.89, -0.89, -0.45, -0.45, -0.89, -2.24, -2.63, -1.2, 0.45, 0.89, 1.2, 0.63, 0.45, 0.0, -0.89, -1.2, -0.6, 0.0, 1.24, 1.24, 1.24, 4.6, 4.6, 4.6, 4.6, 4.6, 4.6, 4.6, 4.6, 4.6, 5.29, 5.29, 5.29, 5.29, 5.06, 5.06, 4.63, 4.63, 4.63, 4.42, 4.66, 4.66, 4.66, 4.66, 4.66, 4.66, 4.66, 4.66, 4.66, 4.44, 4.69, 4.69, 4.69, 4.45, 4.46, 4.05, 3.83, 3.83, 3.64, 3.42, 3.45, 2.8, 2.18, 1.73, 1.73, 1.57, 1.23, 0.57, 0.0, 0.0, 0.0, 0.0, 0.0, 0.0, 0.0, -0.54, -0.57, -0.8, -0.95, -1.2, -1.34, -1.79, -2.12, -2.6, -3.09, -3.58, -2.68, -1.79, -1.34, -1.79, -3.13, -3.58, -3.58, -3.13, -4.02, -2.68, -2.63, -1.79, -0.89, -0.89, -0.45, -0.45, 0.0, -0.45, -1.2, -1.2, 0.0, 0.45, 0.89, 0.89, 0.89, 1.34, 0.63, 0.0, 0.0, 0.57, 1.58, 1.58, 1.58]}, {"header": {"dx": 0.06612293990616946, "dy": 0.0552356325346848, "nx": 98, "ny": 59, "la1": 35.046912555036876, "la2": 31.78801023549047, "lo1": -121.43107172385933, "lo2": -114.95102361305473, "refTime": "2026041812", "parameterCategory": 1, "parameterNumber": 3}, "data": [-11.5, -11.34, -10.96, -10.68, -10.02, -8.96, -8.15, -7.2, -6.1, -4.9, -3.7, -2.24, -0.89, -0.0, -0.63, -0.99, -1.84, -2.0, -1.83, -0.96, -0.0, -0.0, 0.59, 0.61, 0.65, 0.54, 1.26, 1.2, 1.2, 0.63, 0.0, 0.0, 0.0, 0.0, 0.0, 0.0, 0.0, 0.0, 0.6, 0.89, 1.2, 0.57, 0.0, -1.6, -3.0, -5.13, -6.2, -7.63, -7.82, -1.84, 1.6, 2.5, 2.15, 2.15, 2.15, 2.53, 2.79, 2.73, 2.11, 1.55, 0.0, -0.89, -0.32, 0.45, 0.6, 1.24, 1.4, 1.49, 1.47, 1.55, 1.49, 0.74, 0.0, 0.0, 0.0, 0.0, 0.66, 0.0, -0.59, -1.26, -0.45, 0.0, 0.0, 0.0, 0.0, 0.0, 0.0, -0.45, -1.2, -2.8, -4.24, -5.16, -5.77, -5.81, -5.77, -5.31, -4.73, -4.73, -11.5, -11.34, -10.96, -10.83, -10.3, -9.63, -8.43, -8.0, -6.8, -5.6, -4.6, -2.17, -0.89, -0.45, 0.0, -0.89, -1.24, -1.6, -1.66, -2.11, -1.84, -0.88, -0.0, 0.76, 1.2, 0.99, 1.26, 1.26, 0.57, -0.0, -0.0, -0.0, -0.0, 0.45, 0.63, 0.57, 0.65, 0.0, 0.0, 0.42, 0.0, -0.85, -2.0, -5.59, -7.97, -9.23, -9.85, -8.22, -2.53, 1.2, 2.5, 2.53, 2.07, 2.51, 2.53, 2.84, 3.07, 3.22, 2.88, 2.2, 1.35, 0.0, 0.0, 0.95, 1.26, 1.49, 1.4, 1.49, 1.35, 1.63, 1.55, 1.52, 0.0, 0.0, 0.0, 0.0, 0.63, 0.0, -0.59, -1.26, -0.45, 0.0, 0.0, 0.0, 0.0, 0.0, 0.0, -0.45, -1.2, -2.8, -4.24, -5.16, -5.77, -5.81, -5.77, -5.31, -4.73, -4.73, -11.34, -11.34, -10.96, -10.96, -10.68, -10.02, -9.35, -8.28, -7.48, -6.28, -5.31, -3.87, -1.7, -0.89, -0.32, 0.0, -0.63, -1.26, -1.84, -1.83, -2.11, -2.12, -1.98, -0.0, -0.0, 1.24, 1.58, 1.9, 0.65, -0.53, -0.53, -0.0, -0.0, 0.63, 0.89, 0.8, 0.65, 0.0, 0.0, -0.61, -1.33, -3.38, -6.88, -8.9, -9.56, -9.56, -7.64, -2.15, 1.86, 2.86, 2.84, 2.07, 2.07, 2.41, 2.53, 2.84, 3.07, 2.88, 2.8, 2.2, 2.35, 1.55, 0.65, 1.58, 1.9, 2.21, 2.07, 2.3, 2.2, 2.29, 2.9, 2.26, 0.76, 0.0, -1.2, -0.65, 0.0, 0.0, -0.57, -1.2, -0.95, -0.45, -0.45, -0.89, -0.63, 0.0, 0.0, 0.0, -1.26, -2.84, -5.43, -6.54, -6.07, -5.77, -5.36, -4.92, -4.87, -4.43, -11.34, -11.34, -10.96, -10.96, -10.41, -10.3, -9.63, -8.82, -7.76, -6.95, -6.1, -5.09, -2.6, -1.7, -1.2, -0.6, -0.57, -0.6, -0.95, -1.27, -1.35, -0.96, -2.12, -2.04, -0.63, -0.0, 1.2, 1.9, 1.2, -0.53, -1.84, -1.84, -1.16, -0.8, 0.0, 0.0, 0.0, -0.7, -1.55, -2.88, -5.3, -7.59, -7.9, -6.24, -4.83, -3.0, -0.66, 1.84, 2.79, 2.73, 2.0, 2.3, 2.07, 3.16, 3.16, 3.48, 2.98, 2.88, 2.8, 2.35, 1.63, 1.47, 2.07, 2.21, 3.16, 3.48, 3.07, 3.43, 4.07, 4.71, 4.46, 2.99, 1.55, 0.0, -1.24, -2.5, -2.07, -2.18, -0.63, -1.79, -1.58, -1.2, -1.2, -1.26, -1.26, -0.63, 0.0, -0.6, -2.53, -5.37, -6.01, -6.07, -5.34, -4.87, -4.02, -4.02, -4.02, -4.43, -10.96, -10.96, -10.96, -10.96, -10.41, -10.3, -9.76, -9.1, -8.43, -7.87, -6.8, -5.81, -3.07, -2.17, -2.12, -1.86, -1.58, -1.24, -0.89, -1.16, -1.03, -0.88, -0.0, -0.96, -0.72, -0.0, -0.0, 0.71, 0.8, -0.0, -1.61, -2.84, -3.49, -3.07, -2.68, -2.8, -2.53, -3.22, -5.3, -7.02, -7.31, -6.01, -2.98, -0.66, 0.0, 0.72, 1.52, 2.2, 2.29, 2.11, 2.0, 2.0, 2.07, 2.84, 3.48, 3.22, 2.88, 2.11, 3.0, 2.26, 1.45, 1.55, 2.15, 3.45, 4.46, 3.72, 2.98, 3.35, 4.43, 5.37, 4.71, 3.7, 3.51, 2.88, 0.61, -2.15, -3.45, -2.88, -1.27, -1.79, -1.61, -1.86, -1.49, -1.2, -1.61, -2.12, -1.86, -2.53, -4.65, -6.32, -5.37, -4.46, -4.09, -3.82, -3.13, -3.13, -3.58, -3.98, -10.96, -10.96, -10.96, -10.96, -10.79, -10.41, -10.3, -9.63, -8.72, -8.15, -7.08, -6.1, -2.91, -2.6, -2.12, -2.4, -2.4, -1.9, -2.4, -2.15, -1.6, -1.45, -1.03, -0.0, -0.0, -0.88, -1.33, -1.49, -1.26, -0.63, -0.89, -1.86, -3.07, -4.24, -4.92, -5.64, -4.93, -5.43, -6.32, -6.7, -5.43, -2.53, -1.16, 0.0, 0.0, 0.0, 0.79, 1.41, 1.47, 1.41, 1.27, 1.49, 2.07, 2.51, 2.3, 2.11, 2.11, 2.2, 2.2, 2.31, 1.55, 1.66, 2.84, 3.84, 3.79, 4.01, 3.72, 3.35, 2.79, 3.22, 2.9, 3.09, 3.91, 3.6, 2.12, 0.0, -2.53, -2.53, -0.53, -0.63, -1.58, -2.6, -2.91, -2.5, -3.07, -4.02, -5.64, -6.44, -6.7, -6.06, -4.73, -5.09, -5.09, -2.91, -1.79, -2.24, -3.53, -3.97, -10.96, -10.96, -10.96, -10.96, -10.96, -10.41, -10.3, -9.76, -9.48, -8.43, -7.76, -6.8, -3.32, -2.4, -2.8, -2.12, -1.86, -2.5, -3.49, -3.07, -1.2, -0.63, -1.47, -2.11, -1.66, -2.68, -3.16, -3.22, -3.2, -2.4, -0.63, -0.45, -1.79, -3.13, -4.47, -5.36, -5.77, -4.89, -4.19, -2.86, -1.7, -2.6, -3.6, -4.47, -3.99, -0.76, 0.7, 2.29, 2.04, 1.01, 0.96, 1.33, 2.07, 2.3, 1.66, 1.41, 1.41, 1.49, 1.47, 1.55, 1.63, 2.2, 2.15, 2.15, 2.86, 3.48, 3.22, 2.3, 1.16, 0.73, 0.72, 0.76, 0.72, 0.71, 0.71, 0.0, 0.0, 0.0, 1.16, 0.66, -1.79, -3.58, -4.47, -5.31, -6.71, -8.46, -9.11, -8.4, -6.64, -6.0, -6.54, -7.33, -5.16, -2.24, -1.79, -2.17, -3.32, -3.82, -10.96, -10.96, -10.96, -10.96, -10.96, -10.41, -10.41, -10.13, -9.76, -9.1, -8.15, -7.31, -3.45, -2.5, -2.84, -1.86, -2.23, -3.16, -3.48, -2.15, 0.0, 1.86, 0.0, -1.2, -3.16, -4.6, -6.0, -6.4, -4.89, -2.84, -2.21, -1.7, -2.24, -3.04, -4.43, -5.32, -5.81, -4.4, -2.41, -0.85, 0.0, -1.7, -4.15, -4.98, -2.21, 0.0, 1.16, 1.47, 1.45, 1.01, 0.61, 1.33, 2.3, 2.4, 2.2, 2.3, 2.0, 1.41, 1.6, 1.47, 1.52, 1.55, 0.65, 1.58, 2.12, 2.21, 2.4, 0.73, 0.0, 0.0, 0.0, 0.0, -0.78, -1.49, -1.49, -0.69, 0.67, 2.2, 2.11, 0.71, -0.67, -4.93, -6.23, -7.6, -8.91, -10.05, -9.15, -8.19, -6.55, -5.86, -7.06, -6.11, -3.53, -2.4, -1.79, -2.4, -3.07, -3.82, -11.22, -10.96, -10.96, -10.96, -10.96, -10.41, -10.41, -10.3, -9.76, -9.48, -8.82, -8.51, -6.4, -5.75, -3.83, -2.8, -3.83, -3.45, -2.53, -1.4, 0.0, 1.4, 1.4, 0.57, -2.6, -3.74, -4.15, -5.24, -4.87, -3.79, -4.38, -5.81, -5.81, -4.82, -4.43, -4.43, -4.92, -3.51, -1.86, 0.0, 0.0, -0.45, -1.6, -1.34, 0.0, 0.63, 0.0, 0.0, 0.7, 1.41, 3.22, 2.51, 3.07, 2.98, 2.98, 2.98, 2.88, 2.47, 2.2, 1.52, 0.78, 0.73, 0.0, 1.2, 2.12, 1.9, 1.47, 0.81, 0.0, -0.71, -0.61, -0.61, -1.65, -2.12, -1.4, -0.7, 0.0, 0.0, 0.0, 0.0, 0.0, -3.16, -5.2, -6.58, -7.48, -7.76, -7.33, -5.16, -3.53, -3.53, -4.02, -3.39, -3.35, -3.32, -2.63, -2.53, -2.79, -3.45, -11.22, -10.96, -10.96, -10.96, -10.96, -10.79, -10.41, -10.41, -10.13, -9.76, -9.1, -8.96, -8.15, -8.22, -7.21, -6.79, -7.21, -7.71, -6.79, -4.38, -3.04, -1.6, 0.0, 0.0, -0.63, -1.49, -1.74, -2.41, -4.89, -5.51, -6.71, -5.36, -4.02, -3.58, -4.02, -4.02, -3.04, -1.79, -0.63, 0.0, -0.45, -0.45, -0.0, -0.0, -0.0, 0.0, -0.95, -0.57, 0.0, 1.88, 2.53, 3.16, 3.48, 2.98, 3.22, 3.11, 3.0, 2.12, 1.45, 0.74, 0.0, 0.0, 1.27, 2.12, 2.54, 2.21, 1.55, 1.47, 0.0, -0.57, -1.4, -1.41, -2.0, -1.36, -1.45, -0.67, -1.27, -2.4, -2.12, -1.44, -0.65, 0.0, -3.07, -3.82, -3.32, -3.07, -2.86, -1.9, -0.95, -0.89, -2.15, -3.14, -4.0, -3.82, -3.53, -2.79, -3.14, -3.45, -11.22, -11.22, -10.96, -10.96, -10.96, -10.96, -10.41, -10.41, -10.04, -9.76, -9.76, -9.48, -8.55, -7.9, -6.4, -6.94, -7.89, -9.54, -9.32, -9.39, -5.32, -2.23, -0.6, -0.0, -0.0, -0.0, -0.0, -0.0, -2.8, -3.74, -3.51, -1.7, -0.45, -1.34, -3.13, -3.58, -2.68, -0.63, -0.6, -0.63, -0.89, -0.45, 0.0, 0.0, 0.0, 0.0, 0.0, 0.0, 0.63, 2.17, 2.8, 2.21, 1.84, 2.3, 2.2, 2.47, 2.26, 0.71, 0.0, 0.0, 0.0, 0.0, 1.9, 2.6, 3.51, 2.84, 3.22, 2.29, 0.7, 0.0, -1.49, -2.54, -2.06, -2.12, -1.36, -1.36, -2.11, -3.07, -3.9, -3.91, -3.51, -1.32, -0.64, -2.5, -1.9, -0.65, -0.61, 0.0, 0.0, 0.0, -1.7, -3.32, -4.24, -3.97, -3.53, -3.14, -3.14, -3.6, -11.22, -11.22, -10.96, -11.22, -10.58, -10.58, -10.41, -10.41, -10.41, -10.13, -9.76, -9.76, -9.21, -8.29, -6.87, -6.23, -5.93, -6.56, -7.21, -7.15, -4.19, -0.53, -0.0, -0.0, -0.0, -0.0, 1.13, 1.33, -0.0, -1.49, -1.6, -0.0, 1.2, 1.2, -0.0, -1.61, -1.88, -0.54, -0.57, -0.6, -0.0, 0.0, 0.89, 2.24, 2.4, 1.7, 0.63, 0.0, 0.0, 0.63, 0.0, 0.0, 0.0, 0.0, 0.7, 0.76, 0.79, 0.0, -0.76, -1.45, 0.0, 1.74, 3.51, 2.68, 2.6, 2.84, 3.64, 3.55, 1.6, 0.0, -1.47, -2.8, -2.04, -1.55, -1.35, -1.45, -2.29, -3.35, -5.0, -5.59, -4.83, -3.0, -1.41, -0.61, -0.54, -0.53, -0.59, -0.66, 0.0, 0.0, -1.24, -3.13, -3.09, -3.13, -3.82, -3.72, -3.35, -3.39, -11.22, -11.22, -11.22, -10.83, -10.83, -10.58, -10.41, -10.41, -10.41, -10.04, -10.13, -9.76, -9.3, -8.94, -7.81, -6.32, -5.08, -5.06, -5.01, -4.94, -3.2, -0.89, -0.0, -0.0, -0.0, -0.0, 0.57, 1.1, 0.55, -0.58, -0.7, -0.0, 0.66, 1.41, 0.59, -0.0, -0.66, -0.61, -0.0, -0.0, 0.8, 1.26, 2.12, 1.7, 1.6, 1.6, 0.63, -0.45, -1.79, -2.54, -2.63, -2.63, -2.91, -4.09, -4.65, -4.43, -2.2, 0.0, -0.78, -0.65, 0.95, 2.6, 2.68, 1.79, 0.89, 0.8, 2.15, 3.22, 2.4, 0.7, 0.0, -1.49, -1.41, -1.55, -1.6, -2.4, -2.26, -3.33, -4.56, -5.0, -4.11, -3.07, -3.55, -3.79, -0.7, -0.66, -1.47, -1.94, -1.27, -1.27, -1.27, -1.9, -2.0, -2.4, -3.45, -3.78, -3.14, -3.07, -10.83, -11.22, -11.22, -10.83, -10.83, -10.83, -10.41, -10.41, -10.41, -10.41, -9.86, -9.86, -9.5, -9.3, -8.73, -7.55, -6.34, -5.41, -5.1, -5.1, -4.08, -2.82, -2.21, -1.34, -0.99, -0.0, -0.0, -0.0, -0.0, -0.56, -0.57, -0.0, -0.0, -0.0, -0.0, -0.0, -0.61, -0.0, -0.0, 0.65, 1.24, 1.24, 1.6, 2.8, 2.68, 2.24, 0.0, -0.45, -2.12, -3.58, -4.02, -6.17, -7.31, -6.88, -5.94, -5.2, -4.34, -2.0, -1.08, 0.0, 1.26, 1.6, 1.79, 0.0, -1.34, -0.89, 0.0, 0.0, 0.0, 0.71, 0.57, 0.0, -1.0, -1.33, -2.2, -3.27, -3.2, -3.33, -3.9, -2.98, -2.53, -3.84, -5.0, -5.21, -2.66, -2.88, -3.11, -2.3, -1.84, -1.13, -1.35, -1.84, -1.88, -2.21, -2.84, -3.48, -2.84, -2.4, -10.83, -11.22, -11.22, -10.83, -10.83, -10.68, -10.68, -10.68, -10.41, -10.41, -10.04, -9.86, -9.86, -9.3, -9.02, -8.45, -7.55, -6.64, -6.04, -5.72, -5.08, -4.69, -4.08, -3.2, -2.63, -1.58, -0.51, -0.0, -0.0, -0.0, -0.0, -0.0, -0.0, -0.0, -0.0, -0.0, -1.13, -0.0, -0.0, 1.0, 1.9, 2.53, 1.58, 2.24, 2.24, 1.79, 1.79, 0.0, 0.0, -1.7, -3.51, -3.74, -2.8, -0.63, 0.0, -1.6, -3.04, -4.09, -1.4, 0.89, 0.6, -0.0, 0.0, -0.45, -2.24, -4.02, -3.58, -2.97, -1.6, 0.63, 1.7, 1.34, 0.0, -0.54, -2.07, -3.33, -2.88, -3.64, -2.98, -1.2, -0.71, -1.49, -2.73, -2.8, -2.73, -5.09, -3.72, -2.51, -1.88, -1.33, -1.55, -1.94, -3.07, -2.84, -2.3, -1.84, -1.88, -1.88, -10.83, -11.22, -10.83, -10.83, -10.83, -10.68, -10.68, -10.68, -10.68, -10.41, -10.41, -9.86, -9.86, -9.37, -9.02, -8.78, -8.19, -7.59, -6.97, -6.35, -5.98, -5.46, -5.08, -4.05, -3.47, -2.48, -1.58, -0.89, -0.0, -0.0, -0.0, -0.0, -0.0, -0.0, -0.0, -0.0, 0.54, 1.24, 2.23, 3.16, 1.58, 1.6, 2.24, 2.24, 1.79, 1.79, 1.79, 1.79, 1.26, 0.0, -1.58, -0.8, 0.8, 1.26, 1.6, 0.0, -1.58, -1.9, 0.0, 0.63, 0.45, 0.0, 0.0, 0.0, -1.34, -3.13, -5.36, -3.58, -0.89, 0.89, 1.34, 1.34, 1.2, 0.0, -0.65, -1.84, -2.07, -2.07, -1.24, 0.0, 1.24, 0.65, 0.0, 0.0, -0.7, -0.65, -2.53, -1.88, -1.2, -1.4, -2.11, -3.48, -2.86, -1.84, -2.04, -1.8, -2.53, -2.53, -10.83, -10.83, -10.83, -10.83, -10.68, -10.68, -10.68, -10.68, -10.68, -10.41, -10.41, -10.41, -9.86, -9.59, -9.02, -8.78, -8.45, -7.9, -7.3, -6.69, -5.7, -5.7, -5.06, -4.0, -2.86, -2.37, -2.26, -1.67, -1.08, -1.0, -0.63, -0.0, -0.0, -0.0, 0.6, 1.61, 2.15, 2.95, 2.21, 3.16, 2.84, 1.6, 2.8, 1.34, 2.24, 1.79, 1.79, 1.79, 1.26, 1.58, 1.9, 1.9, 1.9, 1.9, 0.0, 0.0, 0.0, 1.4, 2.8, 2.4, 1.9, 1.9, 1.9, 1.9, 1.9, -0.6, -2.12, -2.68, -1.34, 0.0, 0.0, -0.0, 0.0, 0.0, 0.0, -1.24, -1.24, -0.6, 0.0, 1.26, 1.49, 0.7, 0.0, 0.0, -0.78, -0.61, -0.57, -0.57, -1.2, -2.88, -2.9, -2.51, -2.5, -2.79, -3.0, -2.73, -2.53, -2.53, -10.83, -10.83, -10.83, -10.83, -10.68, -10.68, -10.68, -10.3, -10.3, -10.41, -10.41, -10.41, -9.94, -9.59, -9.02, -8.78, -8.5, -8.22, -7.3, -6.35, -5.7, -5.04, -4.63, -3.52, -2.3, -1.73, -2.28, -2.69, -2.23, -2.29, -1.73, -1.16, 0.0, 0.0, 1.34, 1.9, 1.84, 2.0, 1.74, 1.24, 1.26, 1.26, 1.2, 0.89, 1.79, 1.79, 1.79, 1.79, 1.26, 1.58, 1.9, 2.4, 1.9, 1.58, 0.0, 0.0, 1.13, 2.53, 2.8, 1.9, 1.4, 0.0, 0.0, 2.24, 2.68, 0.89, 0.0, -2.54, -3.04, -1.79, -1.58, -1.9, -1.6, -0.89, -0.45, -1.2, -1.86, -0.8, 0.0, 0.0, 0.0, -0.59, -1.47, -2.06, -2.2, -2.15, -2.15, 0.0, -2.07, -3.64, -3.0, -2.3, -2.53, -4.12, -4.36, -2.98, -3.16, -3.16, -10.83, -10.83, -10.83, -10.68, -10.68, -10.68, -10.3, -10.3, -10.3, -10.3, -10.41, -10.41, -10.23, -9.59, -9.3, -8.3, -8.45, -8.19, -6.97, -5.72, -5.26, -5.67, -5.7, -3.91, -3.2, -3.35, -3.35, -3.47, -3.11, -3.21, -2.16, -1.73, -0.59, 0.0, 0.0, 1.86, 2.48, 1.73, 0.53, 0.71, 0.99, 1.26, 1.2, 1.79, 1.79, 1.79, 1.34, 1.34, 1.26, 1.58, 2.4, 2.8, 2.8, 2.8, 2.8, 1.4, 1.6, 1.6, 1.6, 0.0, 0.0, 0.0, 0.0, 0.89, 1.34, 0.63, 0.0, -3.22, -3.49, -1.58, -1.34, -1.34, -1.24, -0.54, -0.6, -1.2, -2.53, -3.07, -2.68, -2.6, -3.48, -4.36, -4.56, -4.67, -5.37, -5.43, -5.43, -4.74, -5.37, -5.09, -3.72, -3.11, -4.01, -5.09, -4.74, -3.72, -3.48, -3.48, -10.83, -10.83, -10.83, -10.68, -10.68, -10.68, -10.3, -10.3, -10.3, -10.3, -10.04, -10.04, -9.86, -9.59, -9.59, -8.45, -8.73, -8.44, -7.06, -6.01, -6.05, -6.96, -7.33, -6.95, -7.02, -5.94, -5.0, -5.08, -4.12, -3.22, -2.22, -1.8, -1.13, -1.16, -0.57, 0.0, 1.24, 1.61, 1.61, 1.88, 2.5, 2.4, 2.6, 2.17, 2.24, 0.89, 1.34, 1.34, 1.79, 1.79, 2.24, 2.4, 2.4, 2.8, 1.26, 1.26, 2.23, 0.71, 0.57, 0.0, 0.0, 0.0, 0.0, 1.79, 0.89, 0.63, 0.0, -0.71, 0.0, 0.76, 0.79, 0.74, 0.75, 0.0, -1.45, -1.88, -2.68, -4.0, -4.92, -4.73, -5.43, -5.43, -5.06, -4.74, -3.84, -2.21, -1.58, -1.24, -4.11, -3.49, -4.46, -5.37, -5.69, -6.07, -5.86, -5.72, -5.09, -5.09, -11.08, -10.83, -10.68, -10.68, -10.68, -10.3, -10.3, -10.3, -10.3, -10.3, -10.04, -9.86, -9.86, -9.59, -9.94, -9.37, -8.45, -8.38, -8.29, -8.03, -7.9, -8.24, -8.85, -8.82, -8.5, -7.59, -5.69, -4.71, -3.43, -2.53, -1.9, -1.9, -1.49, -1.24, -1.26, 0.0, 0.45, 1.6, 1.86, 2.4, 2.91, 3.07, 3.07, 2.68, 2.24, 0.89, 1.34, 1.34, 1.34, 1.34, 1.79, 1.79, 2.24, 2.68, 2.4, 1.26, 1.24, 1.9, 1.13, 0.0, 0.0, 0.0, 0.0, 0.0, 0.63, 0.63, 0.0, 0.0, 1.58, 4.19, 5.43, 4.83, 2.25, 0.0, -3.7, -6.01, -3.97, -5.64, -6.98, -6.26, -5.34, -4.46, -3.79, -2.51, -1.24, 0.0, 0.45, 0.0, -0.61, -1.84, -4.81, -6.7, -6.39, -5.69, -7.06, -7.2, -6.25, -6.25, -10.55, -10.55, -10.3, -10.3, -10.3, -10.3, -10.3, -10.3, -10.3, -10.13, -10.13, -9.86, -9.86, -9.59, -9.94, -9.59, -9.02, -9.02, -9.37, -9.42, -8.53, -7.9, -8.19, -7.9, -7.6, -6.69, -5.1, -3.49, -2.51, -1.9, -1.86, -1.86, -1.86, -1.86, -1.26, -0.6, 0.0, 1.34, 1.79, 2.24, 2.68, 3.13, 3.13, 2.68, 2.68, 1.79, 0.45, 1.34, 0.0, 1.34, 1.34, 1.79, 1.79, 2.24, 2.24, 2.4, 1.86, 2.23, 1.9, 0.0, -0.0, -0.0, 0.63, 0.63, 0.63, 0.63, 0.63, 0.45, 0.89, 1.79, 1.9, 2.95, 2.07, 0.65, -6.28, -7.46, -5.72, -3.53, -4.73, -6.11, -5.81, -4.24, -2.53, -1.88, -0.54, 0.6, 0.0, -1.26, -2.48, -2.66, -5.59, -6.98, -6.35, -4.73, -5.2, -5.94, -6.0, -6.0, -10.55, -10.55, -10.55, -10.3, -10.3, -10.3, -10.3, -10.3, -10.13, -10.13, -10.13, -9.86, -9.86, -9.86, -9.94, -9.94, -9.37, -9.37, -9.42, -9.13, -8.24, -6.98, -6.06, -6.34, -6.35, -6.0, -5.1, -4.1, -3.08, -2.48, -2.23, -1.88, -1.9, -1.2, -0.65, 0.0, 0.0, 0.71, 1.58, 1.86, 2.6, 3.07, 3.13, 2.63, 2.63, 2.17, 0.89, 1.34, 0.0, 1.34, 1.79, 1.79, 1.79, 1.79, 1.79, 2.24, 1.79, 1.7, 1.34, 0.45, -0.0, -0.0, -0.0, 0.63, 1.2, 1.2, 0.89, 0.0, 0.0, -0.45, -0.89, 0.0, 1.79, 1.79, -4.02, -6.85, -6.7, -4.43, -2.91, -3.53, -4.43, -5.81, -3.97, -3.32, -2.8, -1.86, -2.4, -3.45, -6.7, -7.59, -6.87, -7.61, -6.35, -2.79, -3.07, -3.87, -5.44, -5.44, -10.55, -10.55, -10.55, -10.55, -10.3, -10.3, -10.3, -10.13, -10.13, -10.13, -10.13, -9.86, -9.86, -9.86, -9.59, -9.59, -9.08, -9.08, -9.08, -8.85, -7.95, -6.7, -5.72, -5.09, -5.09, -5.09, -5.36, -4.71, -4.08, -3.45, -2.84, -2.44, -1.76, -1.11, -0.57, 0.0, 0.0, 1.16, 1.16, 1.88, 2.5, 2.91, 2.91, 3.07, 2.63, 2.6, 1.79, 1.26, 1.34, 2.24, 2.24, 1.79, 1.79, 1.79, 1.79, 1.79, 0.89, 0.89, 0.89, 0.45, 0.0, -0.63, -0.63, -0.0, 1.2, 1.6, 1.34, 1.34, 0.0, -0.89, -2.12, -0.0, 0.89, 1.34, 0.0, -4.77, -6.4, -4.47, -2.99, -1.58, -3.13, -5.2, -7.01, -6.26, -5.81, -5.77, -6.55, -8.4, -9.2, -6.7, -6.64, -4.12, -2.53, -1.24, -1.26, -3.07, -4.0, -4.0, -10.16, -10.16, -10.16, -10.16, -10.55, -10.3, -10.13, -10.13, -10.13, -9.76, -9.76, -9.5, -9.86, -9.86, -9.59, -9.37, -9.37, -9.08, -8.82, -8.53, -7.93, -6.98, -6.34, -5.72, -5.34, -5.09, -5.36, -5.1, -4.46, -4.08, -3.42, -3.0, -2.32, -1.84, -0.59, 0.0, 0.0, 0.63, 1.11, 1.6, 1.84, 2.21, 2.68, 2.91, 2.91, 2.4, 1.86, 1.86, 1.86, 2.17, 2.17, 1.34, 1.79, 1.26, 1.26, 1.34, 1.34, 0.0, 0.0, 0.0, 0.0, -0.63, -0.89, -0.0, 1.6, 1.6, 1.2, 0.63, -0.0, -1.2, -1.86, -1.49, 0.0, 0.0, 0.4, -0.6, -1.88, -2.79, -3.45, -1.4, -1.88, -3.58, -7.48, -7.94, -8.01, -8.05, -8.46, -8.63, -5.86, -3.13, -1.34, -0.99, -0.65, -0.61, -0.61, -1.6, -2.51, -2.51, -10.16, -10.16, -10.16, -10.16, -10.16, -10.02, -9.76, -9.76, -9.76, -9.76, -9.5, -9.5, -9.5, -9.66, -9.37, -9.37, -9.37, -9.08, -8.82, -8.82, -7.93, -7.61, -6.98, -6.34, -5.72, -5.08, -5.09, -4.71, -4.46, -4.08, -4.08, -2.96, -2.29, -1.65, -1.14, 0.0, 0.0, 0.61, 1.08, 1.11, 1.6, 2.23, 2.79, 3.07, 2.68, 2.5, 1.9, 1.86, 2.4, 2.6, 2.17, 2.24, 0.89, 1.26, 1.26, 1.26, -0.0, 0.0, 0.0, -0.63, -0.8, -0.8, -0.63, 0.0, 1.2, 1.2, 1.2, 0.6, -0.63, -0.89, -1.86, -2.23, -1.24, 0.0, 0.0, 0.0, -0.65, -2.48, -3.72, -2.79, -2.79, -3.45, -4.47, -6.85, -6.85, -6.71, -6.66, -3.97, -2.4, -2.5, -2.91, -0.57, -1.13, -1.23, -1.19, -1.23, -1.8, -1.8, -10.4, -10.4, -10.02, -10.02, -10.02, -10.02, -9.76, -9.76, -9.76, -9.76, -9.5, -9.5, -9.3, -9.3, -9.3, -9.02, -9.37, -8.82, -8.5, -8.22, -8.22, -7.32, -6.98, -6.34, -5.7, -5.32, -5.09, -4.71, -4.73, -4.08, -3.42, -3.42, -2.77, -2.32, -1.67, -0.53, 0.0, 0.0, 0.0, 0.57, 1.27, 1.6, 2.23, 2.79, 2.79, 2.5, 1.9, 1.9, 1.86, 2.0, 2.17, 2.17, 1.79, 1.6, 0.6, -0.0, -0.0, -0.0, 0.0, 0.0, -0.95, -1.26, -1.26, -0.63, 1.34, 0.63, 0.4, -0.0, -1.6, -1.79, -2.54, -3.2, -2.8, -1.58, 0.0, 0.63, 0.0, -1.84, -3.72, -3.79, -4.12, -4.46, -3.82, -4.3, -6.64, -6.67, -4.92, -1.9, -1.16, -3.14, -4.77, -4.88, -2.48, -3.11, -2.6, -2.4, -2.44, -2.44, -9.88, -9.88, -10.02, -10.02, -10.02, -10.02, -10.02, -9.76, -9.76, -9.76, -9.76, -9.3, -9.3, -9.3, -9.3, -9.02, -9.02, -8.78, -8.5, -8.22, -7.9, -7.6, -7.6, -6.7, -6.34, -5.7, -5.08, -5.08, -4.45, -4.05, -3.64, -3.42, -2.77, -2.32, -1.67, -1.16, -0.54, 0.0, 0.0, 0.0, 0.57, 1.6, 2.23, 2.84, 2.84, 2.84, 2.53, 1.9, 1.86, 1.86, 2.17, 2.12, 2.24, 1.79, 1.26, -0.0, -0.0, -0.0, -0.0, -0.0, -0.63, -1.58, -1.58, -0.6, 0.0, 0.0, -0.0, -0.0, -1.2, -2.24, -2.12, -2.21, -3.22, -2.4, -0.89, -0.0, 0.0, -1.24, -2.53, -3.79, -4.46, -5.86, -5.29, -3.07, -4.3, -6.85, -5.31, -2.0, -2.51, -4.0, -6.11, -7.15, -4.73, -5.06, -4.02, -4.07, -3.38, -3.38, -9.88, -9.88, -9.88, -9.63, -9.63, -10.02, -10.02, -9.76, -9.76, -9.76, -9.58, -9.3, -9.3, -9.3, -9.3, -9.3, -8.78, -8.78, -8.78, -7.9, -7.9, -7.6, -7.3, -6.98, -6.35, -6.35, -5.72, -5.08, -4.69, -4.05, -3.4, -3.42, -2.77, -2.32, -1.67, -1.7, -1.16, -0.61, 0.0, 0.0, 0.57, 1.13, 2.23, 1.9, 1.9, 3.16, 2.84, 2.21, 1.9, 1.86, 2.12, 2.12, 1.7, 1.79, 1.79, 0.6, -0.0, -0.0, -0.0, -0.0, 0.0, -0.8, -1.24, -0.6, 0.0, -0.0, -0.0, 0.63, -0.0, -1.2, -1.79, -1.49, -2.29, -3.79, -2.63, -1.2, -0.45, -1.34, -2.15, -2.84, -2.84, -5.49, -5.93, -4.71, -2.91, -3.07, -4.71, -5.72, -5.44, -6.22, -7.56, -7.15, -6.67, -5.86, -5.36, -4.43, -4.43, -4.43, -9.88, -9.88, -9.88, -9.63, -9.63, -9.63, -10.02, -9.76, -9.76, -9.76, -9.58, -9.3, -8.94, -8.94, -8.94, -8.73, -8.45, -8.45, -8.45, -8.19, -7.9, -7.6, -6.98, -6.98, -6.35, -6.08, -5.72, -5.34, -4.69, -4.28, -4.05, -3.4, -3.42, -2.77, -2.32, -1.67, -1.16, -1.07, -0.55, 0.0, 0.0, 1.13, 1.84, 2.23, 2.79, 1.9, 1.9, 2.53, 2.15, 2.4, 1.86, 2.12, 1.7, 1.79, 1.79, 1.34, -0.0, -0.0, -0.0, -0.0, 0.0, -0.4, -0.57, -0.63, -0.89, -0.95, -0.57, -0.0, 0.0, -0.45, -2.68, -3.45, -2.29, -2.31, -3.69, -2.84, -1.86, -1.79, -2.24, -2.86, -2.79, -5.59, -6.51, -5.65, -3.49, -1.79, -3.35, -7.33, -8.71, -8.84, -7.94, -7.12, -7.15, -6.36, -5.86, -5.36, -5.36, -5.36, -9.88, -9.88, -9.88, -9.63, -9.63, -9.63, -9.63, -9.63, -9.38, -9.21, -9.21, -9.21, -8.94, -8.94, -8.73, -8.73, -8.73, -8.45, -8.19, -8.19, -7.86, -7.59, -6.98, -6.69, -6.35, -6.35, -5.72, -5.09, -4.71, -4.71, -4.05, -4.05, -3.64, -2.96, -3.0, -2.32, -1.84, -1.16, -0.61, 0.0, 0.0, 0.59, 1.33, 1.84, 2.21, 1.24, 1.24, 2.53, 2.15, 2.4, 1.86, 2.12, 2.12, 2.24, 1.79, 1.79, 1.34, 0.95, -0.0, -0.0, -0.0, -0.45, -0.32, -1.34, -1.34, -1.34, -1.7, -2.23, -1.79, -1.9, -5.34, -6.07, -3.07, -1.41, -2.35, -3.88, -3.9, -1.9, -2.17, -2.91, -3.14, -3.78, -6.41, -6.7, -5.06, -3.2, -2.91, -3.98, -5.24, -6.58, -6.42, -6.42, -6.22, -6.26, -6.42, -6.64, -5.86, -5.86, -9.88, -9.88, -9.88, -9.88, -9.63, -9.63, -9.63, -9.48, -9.21, -9.21, -9.21, -9.21, -9.21, -8.73, -8.73, -8.73, -8.73, -8.73, -8.15, -8.15, -8.15, -7.27, -7.27, -6.97, -6.64, -6.35, -5.72, -5.44, -4.16, -4.05, -4.46, -4.05, -4.08, -3.42, -2.77, -2.8, -2.16, -1.7, -1.19, -0.55, 0.0, 0.0, 1.13, 1.61, 1.61, 1.88, 1.88, 1.88, 2.15, 2.23, 1.86, 2.12, 2.12, 2.17, 2.24, 1.79, 1.79, 1.79, 1.2, -0.0, -0.6, -0.95, -0.95, -1.2, -0.89, 0.0, 0.0, -2.24, -4.02, -5.81, -4.8, -3.51, -3.13, -2.21, -0.72, -2.31, -3.2, -2.15, -1.58, -1.9, -2.21, -2.5, -3.07, -5.49, -5.88, -5.06, -3.83, -2.79, -2.68, -3.07, -2.68, -3.6, -4.77, -5.78, -6.23, -6.58, -5.94, -5.94, -9.88, -9.88, -9.88, -9.88, -9.63, -9.48, -9.48, -9.48, -9.21, -9.21, -9.21, -9.21, -9.21, -9.21, -8.73, -8.73, -8.38, -8.15, -8.15, -7.81, -7.55, -7.55, -7.55, -6.97, -6.35, -6.35, -6.01, -5.72, -5.38, -3.9, -4.47, -4.08, -4.08, -3.42, -3.42, -3.0, -2.32, -2.36, -1.07, -0.55, 0.0, 0.0, 0.59, 1.16, 1.16, 1.16, 1.88, 1.9, 2.23, 1.86, 1.86, 2.12, 2.12, 2.24, 2.24, 2.24, 1.79, 1.79, 1.79, 0.57, -0.65, -1.26, -1.9, -0.6, -0.0, 0.0, 0.6, 0.0, -2.23, -2.8, -1.86, -0.63, -2.24, -3.32, -2.07, -1.41, -1.16, -1.24, -0.57, 0.0, 0.0, -0.65, -1.58, -2.53, -5.01, -5.37, -4.78, -3.22, -1.61, -0.63, 0.0, -0.0, -2.17, -4.43, -5.81, -5.32, -4.88, -4.88, -9.48, -9.48, -9.48, -9.35, -9.48, -9.48, -9.48, -9.48, -9.48, -9.21, -9.21, -9.21, -9.21, -9.01, -8.38, -8.38, -8.15, -8.15, -7.81, -7.81, -7.55, -7.55, -7.55, -6.95, -6.67, -6.35, -6.34, -5.72, -5.72, -5.1, -4.75, -4.1, -4.1, -3.42, -3.42, -3.45, -2.8, -2.36, -1.7, -1.19, -0.63, 0.0, 0.0, 1.16, 1.16, 1.16, 1.2, 1.9, 1.86, 1.86, 1.86, 2.12, 2.17, 2.24, 2.24, 2.24, 1.79, 1.79, 1.79, 0.95, -1.58, -1.26, -0.0, 0.0, 0.0, 0.0, 0.45, 0.63, 0.0, -0.6, 0.0, 0.0, -1.58, -4.46, -4.11, -1.84, -0.54, 0.57, 1.2, 0.66, 0.0, 0.0, -1.16, -1.88, -2.51, -4.75, -4.47, -4.12, -1.84, -0.54, 1.2, 1.79, 0.45, -1.79, -4.02, -4.92, -4.47, -4.47, -9.48, -9.48, -9.35, -9.35, -9.1, -9.1, -9.48, -9.48, -9.48, -9.21, -9.21, -9.21, -8.84, -8.65, -8.65, -8.65, -8.15, -7.81, -7.81, -7.81, -7.55, -7.23, -7.23, -6.95, -6.95, -6.65, -6.34, -6.01, -5.72, -5.38, -4.75, -4.47, -4.1, -4.1, -3.45, -3.45, -3.22, -2.82, -2.18, -1.73, -1.08, 0.0, 0.0, 0.51, 1.16, 1.16, 1.2, 1.58, 1.86, 1.86, 1.86, 2.12, 2.24, 2.24, 2.24, 2.24, 1.79, 1.79, 1.79, 1.79, 0.63, 0.0, 0.0, 0.0, 0.0, 0.0, 0.0, -0.0, -0.45, -0.89, -0.89, -1.79, -2.6, -5.37, -5.0, -2.0, 0.0, 2.98, 3.11, 1.6, 0.0, -0.66, -1.33, -2.53, -2.53, -3.22, -3.47, -2.0, -1.6, -0.65, 0.6, 1.34, 1.34, 0.0, -1.79, -3.58, -5.36, -5.36, -9.48, -9.48, -9.35, -9.35, -9.35, -9.1, -9.1, -9.1, -9.1, -9.1, -8.84, -8.84, -8.65, -8.65, -8.65, -8.65, -8.44, -8.08, -8.08, -8.08, -7.51, -7.51, -7.51, -7.25, -6.64, -6.34, -6.34, -6.34, -5.72, -5.38, -5.08, -4.47, -4.1, -3.85, -3.85, -3.85, -3.22, -2.82, -2.4, -1.73, -1.23, -0.57, 0.0, 0.0, 0.61, 0.61, 1.0, 1.58, 1.49, 1.49, 2.12, 2.12, 2.24, 2.24, 2.24, 2.24, 1.79, 1.79, 1.79, 1.79, 1.79, 1.2, 0.0, 0.0, 0.0, 0.0, -0.0, -0.0, -0.63, -0.89, -1.34, -2.24, -2.6, -2.8, -2.31, -1.41, 0.0, 2.35, 2.2, 0.7, 0.0, -0.61, -1.2, -1.9, -2.15, -1.61, -1.84, -1.84, -1.33, 0.0, 0.0, 0.95, 0.89, 0.45, 0.0, -0.89, -4.88, -4.88, -9.48, -9.48, -9.35, -9.35, -9.35, -9.1, -9.1, -9.1, -9.1, -9.1, -9.1, -8.65, -8.65, -8.65, -8.65, -8.65, -8.08, -8.08, -8.08, -7.85, -7.51, -7.51, -7.51, -6.92, -6.92, -6.64, -6.34, -6.34, -5.72, -5.71, -5.38, -4.75, -4.47, -4.1, -3.85, -4.12, -3.84, -3.22, -2.84, -2.2, -1.76, -1.11, 0.0, 0.0, 0.0, 0.0, 0.71, 1.26, 1.6, 1.6, 1.7, 2.24, 2.24, 2.24, 2.24, 1.79, 1.79, 1.79, 1.79, 2.24, 2.24, 1.7, -0.0, -0.0, 0.0, 0.0, -0.0, -0.0, -0.0, -0.63, -1.34, -1.79, -1.6, 0.0, -0.76, -1.58, -1.6, -1.52, -1.52, -1.23, -0.61, -0.65, -0.54, -1.24, -1.49, -1.58, -1.2, -1.16, -0.53, 0.0, 0.0, 0.6, 0.63, 0.0, 0.0, 0.0, -0.89, -2.68, -9.48, -9.48, -9.35, -9.35, -9.35, -9.35, -9.1, -9.1, -9.1, -9.1, -8.93, -8.93, -8.93, -8.65, -8.65, -8.29, -8.08, -8.08, -8.08, -7.51, -7.51, -7.51, -7.17, -6.92, -6.92, -6.92, -6.64, -6.34, -6.32, -5.71, -5.38, -5.08, -4.47, -4.75, -4.45, -4.12, -4.12, -3.47, -2.84, -2.2, -1.76, -1.11, -0.59, 0.0, 0.0, 0.0, 0.57, 1.26, 1.6, 1.6, 1.7, 2.24, 2.24, 2.24, 1.79, 1.79, 1.79, 1.79, 2.24, 2.24, 2.12, 1.7, 0.45, -0.0, 0.0, 0.0, 0.0, -0.0, -0.0, -0.45, -0.89, -1.79, -1.79, -1.2, -0.69, -1.49, -3.11, -5.3, -5.31, -4.29, -2.07, -1.16, -0.53, -0.54, -0.57, -0.54, -0.65, 0.0, 0.0, 0.0, 0.0, 0.0, 0.0, 0.0, 0.0, 0.0, -0.45, -0.89, -9.48, -9.48, -9.35, -9.35, -9.35, -9.35, -9.1, -9.1, -9.1, -8.93, -8.93, -8.93, -8.93, -8.55, -8.29, -8.29, -8.08, -8.08, -7.73, -7.51, -7.51, -7.51, -7.17, -7.21, -7.21, -6.92, -6.92, -6.32, -6.32, -5.71, -5.69, -5.08, -4.47, -4.75, -4.75, -4.45, -4.12, -4.12, -3.49, -2.86, -2.22, -1.8, -0.59, -0.61, 0.0, 0.0, 0.57, 1.6, 1.2, 1.6, 1.79, 1.79, 2.24, 1.79, 1.79, 1.79, 1.79, 1.79, 2.24, 2.12, 2.17, 2.12, 1.6, 0.0, 0.0, 0.0, 0.0, -0.0, -0.0, 0.0, -0.89, -1.79, -3.13, -3.04, -0.87, 0.0, -0.73, -2.88, -4.71, -4.22, -2.0, -1.33, -0.7, 0.0, 0.0, 0.0, 0.0, 0.0, 0.0, 0.0, 0.0, 0.0, 0.0, 0.0, 0.0, 0.0, -0.89, -0.45, -9.48, -9.48, -9.35, -9.35, -9.35, -9.35, -9.35, -9.1, -9.1, -8.93, -8.93, -8.55, -8.55, -8.55, -8.55, -8.55, -8.08, -8.08, -7.73, -7.51, -7.8, -7.44, -7.44, -7.21, -6.87, -6.87, -6.59, -6.59, -6.32, -6.01, -5.69, -5.08, -5.08, -4.75, -4.75, -4.45, -4.45, -4.12, -3.49, -3.12, -2.44, -1.8, -1.13, -0.61, -0.65, 0.0, 0.57, 1.2, 1.2, 1.2, 1.79, 1.79, 1.79, 1.7, 1.2, 1.2, 1.2, 1.7, 2.12, 2.17, 2.17, 1.86, 1.34, 1.79, 1.34, 0.0, 0.0, -0.0, -0.0, -0.0, -0.45, -1.7, -3.13, -3.13, -1.6, 0.0, 0.54, 0.0, -1.27, -2.2, -1.13, 0.0, 0.0, 0.7, 0.7, 0.66, 0.66, 0.0, 0.0, 0.0, 0.0, 0.0, -0.6, -0.6, -0.63, -0.89, -0.89, -0.89, -9.48, -9.48, -9.35, -9.35, -9.35, -9.35, -9.35, -9.1, -8.55, -8.55, -8.55, -8.55, -8.55, -8.55, -8.55, -8.55, -8.37, -8.37, -8.0, -7.8, -7.8, -7.44, -7.44, -7.21, -6.87, -6.87, -6.87, -6.87, -6.62, -6.28, -6.01, -5.69, -5.37, -5.06, -4.75, -4.75, -4.45, -4.74, -4.12, -3.49, -2.86, -2.23, -1.13, -1.16, -0.65, 0.0, 0.6, 0.95, 0.95, 1.34, 1.34, 1.79, 1.79, 1.34, 1.2, 1.2, 1.2, 1.7, 2.12, 2.17, 2.6, 2.4, 1.86, 1.34, 1.34, 1.34, 1.79, 1.58, -0.0, -0.0, -0.89, -1.79, -3.13, -3.13, -2.24, 0.0, 0.6, 0.54, 0.0, 0.0, 0.0, 0.66, 1.41, 1.32, 0.69, 0.0, 0.0, 0.0, 0.0, 0.0, -0.59, -0.54, -1.26, -1.26, -1.2, -1.6, -1.6, -1.6, -9.71, -9.71, -9.35, -9.35, -9.35, -9.35, -8.96, -8.96, -8.55, -8.55, -8.55, -8.55, -8.55, -8.55, -8.55, -8.55, -8.37, -8.0, -8.0, -8.0, -7.44, -7.44, -7.44, -7.09, -6.87, -6.87, -6.87, -6.87, -6.87, -6.28, -6.28, -5.69, -5.37, -5.06, -5.06, -5.06, -4.45, -4.74, -4.12, -3.78, -2.86, -2.23, -1.84, -1.16, -0.65, 0.0, 0.6, 0.63, 0.63, 0.89, 1.34, 1.34, 1.34, 1.34, 0.95, 0.95, 1.2, 1.6, 2.12, 2.17, 2.4, 2.4, 1.9, 1.26, 1.26, 1.79, 1.58, 1.58, 0.6, -0.0, -0.89, -1.79, -3.13, -3.13, -2.24, -0.89, 0.0, 0.0, 0.66, 2.2, 3.69, 5.04, 4.2, 2.69, 1.4, 0.0, 0.0, -0.66, -0.73, -1.41, -0.7, -1.2, -1.86, -1.86, -1.86, -1.86, -1.86, -1.86, -9.71, -9.71, -9.6, -9.35, -9.35, -8.96, -8.96, -8.96, -8.82, -8.55, -8.55, -8.55, -8.55, -8.55, -8.55, -8.55, -8.0, -8.0, -8.0, -8.0, -7.44, -7.44, -7.44, -7.09, -6.87, -6.87, -6.87, -6.87, -6.87, -6.28, -6.28, -5.98, -5.65, -5.06, -5.06, -5.06, -5.35, -4.74, -4.43, -4.11, -3.2, -2.48, -1.84, -1.16, -0.54, 0.0, 0.0, 0.0, 0.0, 0.89, 0.89, 0.89, 0.89, 0.89, 0.89, 0.95, 1.2, 1.6, 1.86, 2.4, 2.4, 2.4, 1.9, 1.24, 1.26, 1.26, 1.58, 0.6, 0.6, -0.0, -0.89, -2.12, -3.04, -3.07, -1.2, 0.0, -0.6, 0.0, 0.72, 3.8, 7.82, 7.73, 5.68, 3.53, 1.4, 0.0, 0.0, -0.66, -1.27, -1.33, -2.4, -1.86, -2.17, -2.6, -2.4, -2.4, -2.4, -2.4, -9.6, -9.6, -9.6, -9.35, -8.96, -8.96, -8.96, -8.82, -8.82, -8.55, -8.55, -8.55, -8.55, -8.55, -8.55, -8.37, -8.0, -8.0, -8.0, -8.0, -7.44, -7.44, -7.72, -7.35, -7.15, -7.15, -7.15, -7.15, -7.15, -6.79, -6.57, -6.23, -5.65, -5.06, -5.06, -5.35, -5.35, -5.01, -4.43, -4.11, -3.48, -2.86, -2.23, -1.88, -1.24, -0.6, 0.0, 0.0, 0.0, 0.0, 0.89, 0.89, 0.89, 0.89, 0.89, 0.63, 0.95, 1.6, 1.86, 2.23, 2.4, 2.15, 1.9, 1.9, 1.24, 1.26, 1.26, 0.63, -0.0, -0.0, -1.34, -2.17, -2.4, -1.7, 0.0, 0.89, 0.0, 0.0, 0.76, 4.16, 6.95, 7.24, 4.58, 3.53, 2.0, 0.72, 0.0, -1.35, -1.33, -2.4, -2.21, -1.7, -2.6, -2.6, -2.6, -2.6, -2.6, -2.6, -9.6, -9.6, -9.6, -9.6, -9.2, -8.96, -8.96, -8.82, -8.82, -8.82, -8.55, -8.55, -8.55, -8.55, -8.55, -8.0, -8.0, -8.0, -8.0, -8.0, -7.72, -7.72, -7.35, -7.35, -7.15, -7.15, -7.15, -7.15, -7.15, -6.79, -6.57, -6.23, -5.65, -5.65, -5.35, -5.35, -5.35, -5.01, -4.71, -4.37, -3.48, -3.16, -2.23, -1.88, -1.24, -0.8, -0.63, -0.89, 0.0, 0.0, 0.0, 0.0, 0.0, 0.0, 0.0, -0.0, 0.95, 0.95, 1.58, 2.23, 1.9, 1.9, 1.9, 1.9, 1.24, 1.58, 1.58, 1.26, -0.0, -0.6, -1.34, -1.79, -1.34, -0.63, 0.0, 1.34, 0.0, 0.0, 2.07, 3.84, 4.81, 4.6, 4.68, 4.12, 2.82, 0.67, -0.63, -1.27, -1.16, -0.63, -0.89, -1.79, -2.68, -2.68, -2.24, -1.79, -1.79, -1.79, -9.6, -9.6, -9.2, -9.2, -9.2, -8.96, -8.96, -8.82, -8.82, -8.82, -8.55, -8.55, -8.55, -8.55, -8.55, -8.27, -8.27, -8.27, -8.27, -7.9, -7.9, -7.72, -7.35, -7.35, -7.15, -7.15, -7.15, -7.15, -7.15, -6.79, -6.79, -6.23, -5.65, -5.93, -5.59, -5.59, -5.59, -5.29, -4.94, -4.37, -4.07, -3.16, -2.23, -2.21, -1.58, -1.26, -0.95, -0.89, -0.89, 0.0, -0.0, 0.0, 0.0, -0.0, -0.0, -0.0, -0.0, 0.6, 1.26, 1.86, 1.9, 1.9, 1.9, 1.61, 1.2, 1.2, 1.2, 1.2, -0.0, -0.0, -0.0, -1.2, -0.89, 0.0, 0.0, 0.0, 0.95, 1.26, 2.4, 2.86, 2.15, 3.11, 4.37, 3.55, 1.23, 0.0, -0.59, -1.16, -0.6, 0.0, -0.89, -1.79, -2.68, -2.68, -2.24, -1.34, -1.34, -1.34, -9.2, -9.2, -9.2, -9.2, -9.2, -9.2, -8.96, -8.82, -8.82, -8.82, -8.82, -8.55, -8.55, -8.55, -8.43, -8.27, -8.27, -8.27, -8.27, -7.9, -7.9, -7.72, -7.35, -7.35, -7.35, -7.15, -7.15, -7.15, -7.15, -6.79, -6.79, -6.23, -6.15, -5.93, -5.59, -5.59, -5.59, -5.49, -4.94, -4.65, -4.07, -3.43, -2.79, -2.21, -1.9, -1.26, -1.2, -1.34, -0.89, -0.63, -0.0, -0.0, -0.0, -0.0, -0.0, -0.0, -0.0, -0.0, 0.8, 1.24, 1.9, 1.88, 1.88, 1.4, 1.16, 0.54, 0.54, 0.71, 0.71, 0.71, 0.57, 0.57, -0.0, -0.0, 0.0, 0.0, 0.45, 0.89, 1.7, 1.9, 1.2, 2.15, 2.53, 1.24, 0.0, 0.0, -1.2, -1.7, -1.86, -1.0, -0.57, -1.7, -2.68, -2.68, -2.24, -0.95, -0.95, -0.95, -9.2, -9.2, -9.2, -9.2, -9.2, -9.2, -8.96, -8.82, -8.82, -8.82, -8.82, -8.55, -8.55, -8.55, -8.43, -8.27, -8.27, -8.27, -7.9, -7.9, -7.9, -7.35, -7.35, -7.35, -7.35, -7.15, -7.15, -7.15, -7.15, -6.79, -7.07, -6.51, -6.51, -5.93, -5.93, -5.59, -5.59, -5.86, -5.29, -4.65, -4.07, -3.43, -2.79, -2.5, -2.4, -2.12, -1.79, -1.79, -1.34, -0.95, -0.63, -0.63, -0.0, -0.0, -0.0, -0.0, -0.0, -0.0, 0.6, 1.24, 1.49, 1.88, 1.88, 1.4, 0.61, -0.0, -0.0, 0.71, 0.99, 0.8, 0.6, 0.95, 0.95, -0.0, -0.0, -0.0, -0.0, 0.32, 0.45, 0.95, 1.24, 1.24, 0.8, 0.0, -0.89, 0.89, -0.0, -1.79, -3.07, -3.07, -1.84, -1.9, -2.6, -2.68, -2.24, -0.95, -0.95, -0.95, -9.2, -9.2, -9.2, -9.2, -9.2, -9.2, -8.96, -8.82, -8.82, -8.82, -8.82, -8.82, -8.55, -8.82, -8.43, -8.27, -8.27, -8.27, -7.9, -7.9, -7.9, -7.72, -7.35, -7.35, -7.35, -7.35, -7.35, -7.35, -7.35, -7.07, -7.07, -6.7, -6.51, -6.15, -5.93, -5.93, -5.86, -5.86, -5.29, -4.65, -4.37, -3.43, -3.14, -2.68, -2.4, -2.17, -2.24, -1.79, -1.79, -1.2, -1.2, -0.95, -0.6, -0.0, -0.0, -0.0, -0.0, -0.0, 0.6, 0.57, 1.49, 1.88, 1.61, 1.16, 0.61, 0.61, -0.0, -0.0, -0.0, -0.0, 0.4, 0.63, 1.34, 1.2, -0.0, -0.0, -0.0, -0.0, -0.0, 0.0, 0.63, 0.63, -0.0, -0.0, 0.0, 1.34, 1.27, 0.0, -3.07, -4.73, -4.66, -3.14, -3.07, -2.68, -1.7, -1.26, -1.26, -1.26, -9.2, -9.2, -9.2, -9.2, -9.2, -9.2, -9.2, -8.82, -8.82, -8.82, -8.82, -8.82, -8.82, -8.43, -8.43, -8.27, -8.27, -8.27, -7.9, -7.9, -7.9, -7.72, -7.35, -7.35, -7.35, -7.35, -7.35, -7.35, -7.61, -7.07, -7.07, -6.7, -6.51, -6.15, -6.15, -6.41, -5.86, -5.86, -5.75, -4.84, -4.55, -3.88, -3.35, -3.07, -2.8, -2.6, -2.24, -2.24, -1.7, -1.7, -1.79, -1.2, -1.2, -0.0, -0.0, -0.0, -0.0, -0.0, -0.0, 0.57, 1.24, 1.4, 1.61, 1.33, 1.16, 0.51, -0.0, -0.0, -0.0, -0.0, -0.0, -0.0, 0.0, 0.45, 0.63, -0.0, -0.0, -0.0, -0.0, 0.0, 0.0, -0.0, 0.57, 0.4, 0.6, 1.34, 2.17, 2.24, 0.0, -3.82, -6.85, -5.44, -2.68, -2.0, -1.86, -1.24, -1.24, -1.24, -9.2, -9.2, -9.2, -9.2, -9.2, -9.2, -9.2, -8.82, -8.82, -8.82, -8.82, -8.82, -8.82, -8.43, -8.43, -8.27, -8.27, -7.9, -7.9, -7.9, -7.9, -8.15, -7.61, -7.61, -7.35, -7.35, -7.35, -7.35, -7.61, -7.23, -7.07, -7.07, -6.51, -6.15, -6.15, -6.41, -6.03, -5.86, -5.75, -4.84, -4.55, -3.88, -3.6, -3.07, -2.91, -2.6, -2.68, -2.24, -2.24, -2.24, -1.79, -1.79, -0.95, -0.0, -0.0, -0.0, -0.0, -0.0, -0.0, 0.57, 0.71, 1.4, 1.33, 1.13, 1.13, 1.13, 0.59, -0.0, -0.0, -0.0, -0.0, -0.6, -0.63, -0.0, -0.0, -0.0, -0.0, -0.0, -0.0, 0.0, -0.0, 0.54, 1.26, 1.2, 1.24, 1.2, 1.7, 2.63, 1.79, -1.7, -4.3, -3.53, -1.26, -1.24, -1.24, -1.24, -1.24, -1.24, -9.2, -9.2, -9.2, -9.2, -9.2, -9.2, -9.2, -8.82, -8.82, -8.82, -8.82, -8.82, -8.82, -8.43, -8.43, -8.27, -8.27, -7.9, -7.9, -8.15, -8.15, -8.15, -7.61, -7.61, -7.35, -7.35, -7.35, -7.35, -7.61, -7.61, -7.07, -7.07, -6.7, -6.51, -6.15, -6.41, -6.03, -5.86, -5.75, -5.21, -4.55, -3.88, -3.6, -3.2, -2.91, -2.63, -2.68, -2.68, -2.68, -2.24, -2.24, -1.79, -1.2, -0.63, -0.0, -0.0, -0.0, -0.0, -0.0, -0.0, 0.54, 0.65, 1.16, 1.13, 1.27, 1.27, 1.11, 0.57, -0.0, -0.0, -0.0, -0.57, -0.57, -0.6, -0.0, -0.0, -0.0, -0.63, -0.63, 0.0, 0.6, 0.7, 1.16, 1.34, 1.26, 1.26, 1.79, 2.63, 2.63, 0.0, -2.24, -1.2, -0.0, -0.57, -1.24, -1.2, -1.2, -1.2, -9.2, -9.2, -9.2, -9.2, -9.2, -9.2, -9.2, -9.07, -8.82, -8.82, -8.82, -8.82, -8.43, -8.43, -8.43, -8.27, -8.27, -7.9, -7.9, -8.15, -8.15, -8.15, -7.76, -7.61, -7.61, -7.61, -7.35, -7.61, -7.61, -7.61, -7.23, -7.07, -6.7, -6.7, -6.41, -6.41, -6.41, -6.28, -5.75, -5.47, -4.55, -4.27, -3.7, -3.39, -3.39, -3.07, -3.13, -3.13, -2.68, -2.68, -2.24, -2.24, -1.34, -1.34, -0.63, -0.0, -0.0, -0.0, -0.0, -0.0, -0.0, 0.65, 0.61, 0.59, 0.59, 1.11, 1.23, 0.55, -0.0, -0.0, -0.0, -0.65, -0.71, -0.0, -0.0, -0.0, -0.0, -0.63, -0.63, -0.0, 0.6, 0.7, 0.59, 0.95, 0.6, 0.57, 1.49, 2.68, 3.07, 1.49, -0.42, -0.0, -0.0, -0.0, -1.24, -1.49, -1.49, -1.49, -9.2, -9.2, -9.2, -9.2, -9.2, -9.2, -9.2, -9.07, -8.82, -8.82, -8.82, -8.82, -8.43, -8.43, -8.43, -8.27, -8.27, -7.9, -8.15, -8.15, -8.15, -8.15, -7.76, -7.61, -7.61, -7.61, -7.61, -7.61, -7.61, -7.61, -7.23, -7.07, -6.7, -6.7, -6.79, -6.41, -6.41, -6.28, -5.75, -5.47, -4.69, -4.4, -4.11, -3.82, -3.39, -3.53, -3.13, -3.13, -3.13, -2.68, -2.24, -1.79, -1.79, -1.34, -1.34, -0.0, -0.0, -0.0, -0.0, -0.0, -0.0, -0.0, -0.0, 0.61, 0.61, 0.59, 0.57, 0.55, -0.0, -0.0, -0.0, -0.0, -0.0, -0.0, -0.0, 0.6, -0.0, -0.0, -0.89, -0.89, 0.65, -0.0, -0.0, -0.0, 0.0, 0.0, 1.24, 2.17, 2.68, 2.0, -0.0, -1.24, -1.2, -0.89, -1.26, -1.24, -1.24, -1.24, -9.2, -9.2, -9.2, -9.2, -9.2, -9.2, -9.2, -9.07, -8.82, -8.82, -8.82, -8.82, -8.43, -8.43, -8.43, -8.43, -8.27, -8.15, -8.15, -8.15, -8.15, -8.15, -7.76, -7.76, -7.61, -7.61, -7.61, -7.61, -7.61, -7.61, -7.61, -7.23, -7.07, -6.7, -6.95, -6.41, -6.41, -6.28, -5.75, -5.6, -5.08, -4.8, -4.11, -3.87, -3.82, -3.53, -3.58, -3.13, -3.13, -2.68, -2.68, -2.24, -1.79, -1.79, -1.34, -0.95, -0.0, -0.0, -0.0, -0.0, -0.0, -0.0, -0.0, 0.65, 0.65, 0.65, 0.61, 0.59, -0.0, -0.0, -0.0, -0.54, -0.0, -0.0, -0.0, -0.0, -0.0, -0.0, -0.45, 0.0, -0.0, -0.0, -0.0, -0.0, 0.0, 0.0, 0.54, 1.58, 2.24, 2.17, 0.6, -0.99, -2.17, -1.79, -1.7, -1.86, -1.86, -1.86, -9.2, -9.2, -9.2, -9.2, -9.2, -9.2, -9.2, -9.2, -9.07, -8.82, -8.82, -8.82, -8.43, -8.43, -8.43, -8.43, -8.54, -8.15, -8.15, -8.15, -8.15, -8.15, -8.15, -8.15, -8.15, -7.76, -7.61, -7.61, -7.61, -7.61, -7.61, -7.23, -7.07, -6.7, -6.95, -6.56, -6.41, -6.28, -6.28, -5.75, -5.08, -4.9, -4.6, -4.3, -3.87, -3.98, -3.58, -3.58, -3.13, -3.13, -2.68, -2.24, -2.24, -1.79, -1.79, -1.2, -0.6, -0.0, -0.0, 0.54, -0.0, -0.0, -0.0, -0.0, 0.65, 1.24, 0.71, 0.54, -0.0, -0.0, -0.57, -0.65, -0.0, -0.0, -0.54, -0.54, -0.57, -0.0, -0.0, -0.45, 0.0, -0.0, -0.0, -0.53, -0.45, 0.0, 0.54, 1.58, 1.7, 1.79, 1.2, -0.6, -1.86, -2.12, -1.79, -2.24, -2.24, -2.24, -9.2, -9.2, -9.2, -9.2, -9.2, -9.2, -9.2, -9.2, -9.07, -8.82, -8.82, -8.82, -8.43, -8.43, -8.43, -8.43, -8.68, -8.54, -8.15, -8.15, -8.15, -8.15, -8.15, -8.15, -8.15, -8.15, -8.15, -8.15, -7.61, -7.61, -7.61, -7.61, -7.23, -6.7, -6.95, -6.56, -6.56, -6.67, -6.28, -5.75, -5.6, -4.9, -4.6, -4.19, -4.3, -3.87, -3.98, -3.58, -3.58, -3.13, -3.13, -2.68, -2.24, -2.24, -1.79, -1.6, -1.2, -0.0, -0.0, -0.0, 0.71, 0.54, -0.0, -0.0, -0.0, 0.71, 0.6, 0.8, -0.0, -0.0, -0.0, -0.0, -0.0, -0.0, -0.0, -0.0, -0.0, -0.0, -0.0, -0.0, -0.0, 0.57, -0.0, -0.61, -0.63, 0.0, 0.57, 1.26, 1.2, 0.89, 0.63, -0.0, -1.26, -1.7, -1.79, -2.17, -2.17, -2.17, -9.2, -9.2, -9.2, -9.2, -9.2, -9.2, -9.2, -9.2, -9.2, -8.82, -8.82, -8.82, -8.82, -8.43, -8.43, -8.68, -8.68, -8.68, -8.28, -8.15, -8.15, -8.15, -8.15, -8.15, -8.15, -8.15, -8.15, -8.15, -7.76, -7.61, -7.61, -7.61, -7.23, -6.7, -6.95, -6.56, -6.56, -6.67, -6.28, -5.75, -5.6, -4.9, -4.6, -4.6, -4.19, -4.3, -3.98, -4.02, -3.58, -3.58, -3.13, -2.68, -2.68, -2.24, -2.17, -1.7, -1.6, -0.95, -0.6, -0.0, -0.0, 0.71, 0.65, 0.51, -0.0, -0.0, -0.0, -0.0, -0.0, -0.0, -0.0, -0.0, -0.0, -0.0, -0.0, 0.53, -0.0, -0.0, -0.0, -0.0, -0.0, -0.0, -0.0, -0.53, -0.6, 0.0, 0.0, 0.6, 0.63, 0.0, 0.0, -0.0, -0.6, -1.2, -1.79, -1.86, -1.86, -1.86, -9.2, -9.2, -9.2, -9.2, -9.2, -9.2, -9.2, -9.2, -9.2, -8.82, -8.82, -8.82, -8.82, -8.43, -8.43, -8.68, -8.68, -8.68, -8.28, -8.15, -8.15, -8.15, -8.15, -8.15, -8.15, -8.15, -8.15, -8.15, -7.76, -7.61, -7.61, -7.61, -7.23, -6.7, -6.95, -6.56, -6.56, -6.67, -6.28, -5.75, -5.6, -4.9, -4.6, -4.6, -4.19, -4.3, -3.98, -4.02, -3.58, -3.58, -3.13, -2.68, -2.68, -2.24, -2.17, -1.7, -1.6, -0.95, -0.6, -0.0, -0.0, 0.71, 0.65, 0.51, -0.0, -0.0, -0.0, -0.0, -0.0, -0.0, -0.0, -0.0, -0.0, -0.0, -0.0, 0.53, -0.0, -0.0, -0.0, -0.0, -0.0, 0.0, -0.0, -0.6, -0.6, -0.45, 0.0, 0.0, 0.0, 0.0, 0.0, -0.63, -0.89, -1.34, -1.7, -1.58, -1.58, -1.58]}]